| time (UTC) | temp F | wind direction | speed MPH | gust MPH | rain 1hr in | rain 24hr in | rain mn in | humidity % | barometer mb |
| 20260505171120 | 71 | 247 | 0.0 | 8.0 | 0.00 | 0.00 | 0.00 | 42 | 1011.7 |
| 20260505171049 | 71 | 246 | 0.0 | 8.0 | 0.00 | 0.00 | 0.00 | 42 | 1011.6 |
| 20260505170948 | 72 | 246 | 1.0 | 8.0 | 0.00 | 0.00 | 0.00 | 42 | 1011.8 |
| 20260505170836 | 72 | 246 | 2.0 | 8.0 | 0.00 | 0.00 | 0.00 | 43 | 1011.7 |
| 20260505170718 | 72 | 241 | 1.0 | 6.0 | 0.00 | 0.00 | 0.00 | 42 | 1011.8 |
| 20260505170620 | 72 | 250 | 1.0 | 7.0 | 0.00 | 0.00 | 0.00 | 43 | 1011.8 |
| 20260505170533 | 72 | 226 | 0.0 | 7.0 | 0.00 | 0.00 | 0.00 | 43 | 1011.9 |
| 20260505170434 | 71 | 227 | 0.0 | 7.0 | 0.00 | 0.00 | 0.00 | 43 | 1011.8 |
| 20260505170317 | 71 | 227 | 0.0 | 7.0 | 0.00 | 0.00 | 0.00 | 42 | 1011.7 |
| 20260505170246 | 71 | 227 | 0.0 | 7.0 | 0.00 | 0.00 | 0.00 | 42 | 1011.8 |
| 20260505170147 | 71 | 226 | 0.0 | 7.0 | 0.00 | 0.00 | 0.00 | 41 | 1011.9 |
| 20260505170047 | 71 | 222 | 0.0 | 7.0 | 0.00 | 0.00 | 0.00 | 41 | 1011.9 |
| 20260505165920 | 71 | 214 | 1.0 | 7.0 | 0.00 | 0.00 | 0.00 | 41 | 1011.8 |
| 20260505165829 | 71 | 212 | 1.0 | 7.0 | 0.00 | 0.00 | 0.00 | 41 | 1011.8 |
| 20260505165730 | 71 | 192 | 0.0 | 3.0 | 0.00 | 0.00 | 0.00 | 41 | 1011.7 |
| 20260505165633 | 71 | 192 | 0.0 | 6.0 | 0.00 | 0.00 | 0.00 | 41 | 1011.7 |
| 20260505165542 | 71 | 192 | 0.0 | 6.0 | 0.00 | 0.00 | 0.00 | 42 | 1011.8 |
| 20260505165423 | 70 | 192 | 0.0 | 6.0 | 0.00 | 0.00 | 0.00 | 42 | 1011.8 |
| 20260505165331 | 70 | 192 | 0.0 | 6.0 | 0.00 | 0.00 | 0.00 | 42 | 1011.8 |
| 20260505165253 | 70 | 236 | 0.0 | 6.0 | 0.00 | 0.00 | 0.00 | 42 | 1011.9 |
| 20260505165125 | 70 | 253 | 0.0 | 6.0 | 0.00 | 0.00 | 0.00 | 42 | 1011.8 |
| 20260505165026 | 70 | 254 | 0.0 | 6.0 | 0.00 | 0.00 | 0.00 | 41 | 1011.8 |
| 20260505164927 | 71 | 254 | 1.0 | 6.0 | 0.00 | 0.00 | 0.00 | 42 | 1011.9 |
| 20260505164856 | 71 | 182 | 2.0 | 6.0 | 0.00 | 0.00 | 0.00 | 42 | 1011.9 |
| 20260505164716 | 70 | 207 | 0.0 | 6.0 | 0.00 | 0.00 | 0.00 | 43 | 1011.7 |
| 20260505164618 | 70 | 208 | 0.0 | 1.0 | 0.00 | 0.00 | 0.00 | 43 | 1011.8 |
| 20260505164531 | 70 | 208 | 0.0 | 1.0 | 0.00 | 0.00 | 0.00 | 43 | 1011.7 |
| 20260505164433 | 70 | 210 | 0.0 | 1.0 | 0.00 | 0.00 | 0.00 | 42 | 1011.7 |
| 20260505164334 | 70 | 214 | 0.0 | 1.0 | 0.00 | 0.00 | 0.00 | 42 | 1011.8 |
| 20260505164216 | 70 | 214 | 0.0 | 4.0 | 0.00 | 0.00 | 0.00 | 42 | 1011.9 |
| 20260505164147 | 70 | 214 | 0.0 | 4.0 | 0.00 | 0.00 | 0.00 | 43 | 1011.9 |
| 20260505164033 | 70 | 214 | 0.0 | 4.0 | 0.00 | 0.00 | 0.00 | 43 | 1011.9 |
| 20260505163933 | 70 | 214 | 0.0 | 4.0 | 0.00 | 0.00 | 0.00 | 41 | 1012.0 |
| 20260505163819 | 70 | 213 | 0.0 | 4.0 | 0.00 | 0.00 | 0.00 | 41 | 1011.9 |
| 20260505163748 | 70 | 212 | 0.0 | 4.0 | 0.00 | 0.00 | 0.00 | 42 | 1012.0 |
| 20260505163657 | 70 | 207 | 0.0 | 4.0 | 0.00 | 0.00 | 0.00 | 42 | 1012.0 |
| 20260505163517 | 70 | 206 | 1.0 | 4.0 | 0.00 | 0.00 | 0.00 | 43 | 1012.0 |
| 20260505163420 | 70 | 205 | 1.0 | 4.0 | 0.00 | 0.00 | 0.00 | 44 | 1012.0 |
| 20260505163322 | 70 | 204 | 0.0 | 4.0 | 0.00 | 0.00 | 0.00 | 44 | 1011.9 |
| 20260505163231 | 70 | 204 | 0.0 | 4.0 | 0.00 | 0.00 | 0.00 | 44 | 1011.9 |
| 20260505163137 | 69 | 204 | 1.0 | 4.0 | 0.00 | 0.00 | 0.00 | 44 | 1011.9 |
| 20260505163018 | 69 | 204 | 1.0 | 4.0 | 0.00 | 0.00 | 0.00 | 45 | 1012.0 |
| 20260505162927 | 69 | 203 | 1.0 | 4.0 | 0.00 | 0.00 | 0.00 | 45 | 1012.0 |
| 20260505162850 | 69 | 203 | 0.0 | 5.0 | 0.00 | 0.00 | 0.00 | 44 | 1012.0 |
| 20260505162738 | 69 | 214 | 0.0 | 5.0 | 0.00 | 0.00 | 0.00 | 44 | 1012.0 |
| 20260505162638 | 69 | 213 | 0.0 | 5.0 | 0.00 | 0.00 | 0.00 | 43 | 1012.0 |
| 20260505162526 | 69 | 214 | 0.0 | 5.0 | 0.00 | 0.00 | 0.00 | 43 | 1012.0 |
| 20260505162432 | 69 | 214 | 0.0 | 5.0 | 0.00 | 0.00 | 0.00 | 43 | 1012.0 |
| 20260505162343 | 69 | 215 | 0.0 | 6.0 | 0.00 | 0.00 | 0.00 | 43 | 1012.0 |
| 20260505162222 | 69 | 212 | 1.0 | 6.0 | 0.00 | 0.00 | 0.00 | 42 | 1012.0 |
| 20260505162125 | 69 | 245 | 1.0 | 6.0 | 0.00 | 0.00 | 0.00 | 42 | 1012.0 |
| 20260505162033 | 69 | 248 | 1.0 | 6.0 | 0.00 | 0.00 | 0.00 | 42 | 1012.0 |
| 20260505162003 | 69 | 245 | 0.0 | 6.0 | 0.00 | 0.00 | 0.00 | 42 | 1012.0 |
| 20260505161824 | 69 | 248 | 1.0 | 6.0 | 0.00 | 0.00 | 0.00 | 42 | 1012.0 |
| 20260505161731 | 69 | 248 | 1.0 | 6.0 | 0.00 | 0.00 | 0.00 | 43 | 1012.0 |
| 20260505161633 | 69 | 248 | 1.0 | 6.0 | 0.00 | 0.00 | 0.00 | 43 | 1011.9 |
| 20260505161542 | 69 | 240 | 1.0 | 6.0 | 0.00 | 0.00 | 0.00 | 43 | 1011.9 |
| 20260505161424 | 69 | 229 | 0.0 | 6.0 | 0.00 | 0.00 | 0.00 | 43 | 1012.0 |
| 20260505161327 | 69 | 229 | 1.0 | 6.0 | 0.00 | 0.00 | 0.00 | 43 | 1012.0 |
| 20260505161229 | 69 | 229 | 1.0 | 6.0 | 0.00 | 0.00 | 0.00 | 43 | 1012.0 |
| 20260505161119 | 69 | 224 | 1.0 | 5.0 | 0.00 | 0.00 | 0.00 | 44 | 1012.0 |
| 20260505161021 | 69 | 222 | 1.0 | 5.0 | 0.00 | 0.00 | 0.00 | 44 | 1012.0 |
| 20260505160924 | 69 | 254 | 0.0 | 0.0 | 0.00 | 0.00 | 0.00 | 44 | 1012.0 |
| 20260505160831 | 69 | 255 | 0.0 | 0.0 | 0.00 | 0.00 | 0.00 | 43 | 1012.0 |
| 20260505160802 | 69 | 255 | 0.0 | 0.0 | 0.00 | 0.00 | 0.00 | 43 | 1012.0 |
| 20260505160641 | 69 | 255 | 0.0 | 0.0 | 0.00 | 0.00 | 0.00 | 43 | 1012.1 |
| 20260505160520 | 68 | 255 | 0.0 | 1.0 | 0.00 | 0.00 | 0.00 | 44 | 1012.1 |
| 20260505160453 | 68 | 255 | 0.0 | 1.0 | 0.00 | 0.00 | 0.00 | 43 | 1012.0 |
| 20260505160334 | 68 | 255 | 0.0 | 4.0 | 0.00 | 0.00 | 0.00 | 43 | 1012.1 |
| 20260505160216 | 68 | 255 | 0.0 | 4.0 | 0.00 | 0.00 | 0.00 | 43 | 1012.0 |
| 20260505160117 | 68 | 255 | 0.0 | 4.0 | 0.00 | 0.00 | 0.00 | 44 | 1012.0 |
| 20260505153326 | 68 | 247 | 1.0 | 5.0 | 0.00 | 0.00 | 0.00 | 47 | 1011.8 |
| 20260505153228 | 68 | 244 | 1.0 | 6.0 | 0.00 | 0.00 | 0.00 | 47 | 1011.8 |
| 20260505153158 | 68 | 245 | 1.0 | 6.0 | 0.00 | 0.00 | 0.00 | 47 | 1011.8 |
| 20260505153018 | 68 | 247 | 1.0 | 9.0 | 0.00 | 0.00 | 0.00 | 46 | 1011.8 |
| 20260505152923 | 68 | 247 | 0.0 | 9.0 | 0.00 | 0.00 | 0.00 | 46 | 1011.8 |
| 20260505152824 | 68 | 245 | 0.0 | 9.0 | 0.00 | 0.00 | 0.00 | 46 | 1011.9 |
| 20260505152733 | 68 | 249 | 0.0 | 9.0 | 0.00 | 0.00 | 0.00 | 45 | 1011.9 |
| 20260505152635 | 68 | 250 | 0.0 | 9.0 | 0.00 | 0.00 | 0.00 | 45 | 1012.0 |
| 20260505152517 | 68 | 271 | 1.0 | 9.0 | 0.00 | 0.00 | 0.00 | 46 | 1011.9 |
| 20260505152419 | 68 | 272 | 2.0 | 9.0 | 0.00 | 0.00 | 0.00 | 46 | 1011.9 |
| 20260505152347 | 68 | 228 | 4.0 | 9.0 | 0.00 | 0.00 | 0.00 | 46 | 1011.9 |
| 20260505152232 | 68 | 260 | 2.0 | 9.0 | 0.00 | 0.00 | 0.00 | 46 | 1011.9 |
| 20260505152141 | 68 | 246 | 1.0 | 9.0 | 0.00 | 0.00 | 0.00 | 47 | 1011.9 |
| 20260505152023 | 68 | 226 | 0.0 | 7.0 | 0.00 | 0.00 | 0.00 | 48 | 1011.9 |
| 20260505151925 | 68 | 226 | 0.0 | 7.0 | 0.00 | 0.00 | 0.00 | 48 | 1012.0 |
| 20260505151836 | 68 | 226 | 1.0 | 7.0 | 0.00 | 0.00 | 0.00 | 48 | 1011.9 |
| 20260505151720 | 68 | 224 | 1.0 | 7.0 | 0.00 | 0.00 | 0.00 | 48 | 1011.9 |
| 20260505151622 | 68 | 224 | 1.0 | 7.0 | 0.00 | 0.00 | 0.00 | 48 | 1011.9 |
| 20260505151523 | 68 | 224 | 2.0 | 7.0 | 0.00 | 0.00 | 0.00 | 49 | 1011.9 |
| 20260505151432 | 68 | 257 | 2.0 | 7.0 | 0.00 | 0.00 | 0.00 | 49 | 1011.9 |
| 20260505151334 | 68 | 214 | 1.0 | 5.0 | 0.00 | 0.00 | 0.00 | 50 | 1011.9 |
| 20260505151235 | 68 | 205 | 1.0 | 5.0 | 0.00 | 0.00 | 0.00 | 51 | 1011.8 |
| 20260505151122 | 68 | 204 | 0.0 | 5.0 | 0.00 | 0.00 | 0.00 | 51 | 1011.8 |
| 20260505151031 | 68 | 193 | 1.0 | 5.0 | 0.00 | 0.00 | 0.00 | 51 | 1011.9 |
| 20260505150933 | 68 | 193 | 1.0 | 5.0 | 0.00 | 0.00 | 0.00 | 51 | 1011.8 |
| 20260505150815 | 68 | 193 | 0.0 | 2.0 | 0.00 | 0.00 | 0.00 | 51 | 1011.8 |
| 20260505150717 | 67 | 193 | 0.0 | 0.0 | 0.00 | 0.00 | 0.00 | 50 | 1011.8 |
| 20260505150646 | 67 | 193 | 0.0 | 0.0 | 0.00 | 0.00 | 0.00 | 51 | 1011.8 |
| 20260505150532 | 67 | 193 | 0.0 | 0.0 | 0.00 | 0.00 | 0.00 | 50 | 1011.7 |
| 20260505150417 | 67 | 193 | 0.0 | 0.0 | 0.00 | 0.00 | 0.00 | 51 | 1011.7 |
| 20260505150324 | 67 | 193 | 0.0 | 0.0 | 0.00 | 0.00 | 0.00 | 51 | 1011.7 |
| 20260505150226 | 67 | 193 | 0.0 | 0.0 | 0.00 | 0.00 | 0.00 | 51 | 1011.8 |
| 20260505150127 | 67 | 193 | 0.0 | 0.0 | 0.00 | 0.00 | 0.00 | 51 | 1011.7 |
| 20260505140638 | 66 | 196 | 0.0 | 4.0 | 0.00 | 0.00 | 0.00 | 59 | 1011.6 |
| 20260505140540 | 66 | 196 | 0.0 | 4.0 | 0.00 | 0.00 | 0.00 | 59 | 1011.6 |
| 20260505140421 | 66 | 196 | 1.0 | 4.0 | 0.00 | 0.00 | 0.00 | 59 | 1011.6 |
| 20260505140331 | 66 | 196 | 1.0 | 4.0 | 0.00 | 0.00 | 0.00 | 59 | 1011.6 |
| 20260505140234 | 66 | 196 | 0.0 | 4.0 | 0.00 | 0.00 | 0.00 | 59 | 1011.6 |
| 20260505140116 | 66 | 196 | 0.0 | 4.0 | 0.00 | 0.00 | 0.00 | 59 | 1011.7 |
| 20260505130251 | 65 | 169 | 1.0 | 5.0 | 0.00 | 0.00 | 0.00 | 59 | 1011.0 |
| 20260505130116 | 65 | 163 | 0.0 | 6.0 | 0.00 | 0.00 | 0.00 | 59 | 1011.0 |
| 20260505125028 | 65 | 238 | 0.0 | 3.0 | 0.00 | 0.00 | 0.00 | 59 | 1010.7 |
| 20260505124934 | 65 | 238 | 1.0 | 3.0 | 0.00 | 0.00 | 0.00 | 59 | 1010.7 |
| 20260505124844 | 65 | 238 | 1.0 | 3.0 | 0.00 | 0.00 | 0.00 | 59 | 1010.7 |
| 20260505124716 | 65 | 257 | 0.0 | 2.0 | 0.00 | 0.00 | 0.00 | 59 | 1010.7 |
| 20260505124625 | 65 | 283 | 0.0 | 2.0 | 0.00 | 0.00 | 0.00 | 59 | 1010.8 |
| 20260505124526 | 65 | 233 | 0.0 | 0.0 | 0.00 | 0.00 | 0.00 | 59 | 1010.8 |
| 20260505124455 | 65 | 233 | 0.0 | 0.0 | 0.00 | 0.00 | 0.00 | 59 | 1010.8 |
| 20260505124320 | 65 | 233 | 0.0 | 1.0 | 0.00 | 0.00 | 0.00 | 59 | 1010.7 |
| 20260505124222 | 65 | 233 | 0.0 | 1.0 | 0.00 | 0.00 | 0.00 | 59 | 1010.7 |
| 20260505124131 | 65 | 233 | 0.0 | 1.0 | 0.00 | 0.00 | 0.00 | 59 | 1010.8 |
| 20260505124033 | 65 | 233 | 0.0 | 1.0 | 0.00 | 0.00 | 0.00 | 59 | 1010.7 |
| 20260505123934 | 65 | 233 | 0.0 | 1.0 | 0.00 | 0.00 | 0.00 | 60 | 1010.7 |
| 20260505123821 | 65 | 233 | 0.0 | 1.0 | 0.00 | 0.00 | 0.00 | 60 | 1010.7 |
| 20260505123727 | 65 | 233 | 0.0 | 1.0 | 0.00 | 0.00 | 0.00 | 60 | 1010.7 |
| 20260505123630 | 65 | 233 | 0.0 | 1.0 | 0.00 | 0.00 | 0.00 | 60 | 1010.6 |
| 20260505123538 | 65 | 233 | 0.0 | 1.0 | 0.00 | 0.00 | 0.00 | 60 | 1010.6 |
| 20260505123439 | 65 | 233 | 0.0 | 1.0 | 0.00 | 0.00 | 0.00 | 60 | 1010.6 |
| 20260505123320 | 65 | 233 | 0.0 | 1.0 | 0.00 | 0.00 | 0.00 | 60 | 1010.7 |
| 20260505123229 | 65 | 233 | 0.0 | 1.0 | 0.00 | 0.00 | 0.00 | 59 | 1010.6 |
| 20260505123116 | 65 | 232 | 0.0 | 0.0 | 0.00 | 0.00 | 0.00 | 60 | 1010.6 |
| 20260505123044 | 65 | 233 | 0.0 | 0.0 | 0.00 | 0.00 | 0.00 | 60 | 1010.6 |
| 20260505122924 | 65 | 233 | 0.0 | 0.0 | 0.00 | 0.00 | 0.00 | 60 | 1010.6 |
| 20260505122832 | 65 | 233 | 0.0 | 0.0 | 0.00 | 0.00 | 0.00 | 60 | 1010.6 |
| 20260505122735 | 65 | 232 | 0.0 | 0.0 | 0.00 | 0.00 | 0.00 | 60 | 1010.7 |
| 20260505122617 | 65 | 233 | 0.0 | 0.0 | 0.00 | 0.00 | 0.00 | 60 | 1010.6 |
| 20260505122519 | 65 | 232 | 0.0 | 0.0 | 0.00 | 0.00 | 0.00 | 60 | 1010.6 |
| 20260505122448 | 65 | 232 | 0.0 | 0.0 | 0.00 | 0.00 | 0.00 | 60 | 1010.6 |
| 20260505122401 | 65 | 232 | 0.0 | 0.0 | 0.00 | 0.00 | 0.00 | 60 | 1010.6 |
| 20260505122219 | 65 | 232 | 0.0 | 0.0 | 0.00 | 0.00 | 0.00 | 60 | 1010.6 |
| 20260505122128 | 65 | 232 | 0.0 | 0.0 | 0.00 | 0.00 | 0.00 | 59 | 1010.6 |
| 20260505122037 | 65 | 233 | 0.0 | 0.0 | 0.00 | 0.00 | 0.00 | 59 | 1010.6 |
| 20260505121918 | 65 | 232 | 0.0 | 0.0 | 0.00 | 0.00 | 0.00 | 59 | 1010.6 |
| 20260505121825 | 65 | 233 | 0.0 | 0.0 | 0.00 | 0.00 | 0.00 | 59 | 1010.7 |
| 20260505121727 | 65 | 233 | 0.0 | 0.0 | 0.00 | 0.00 | 0.00 | 59 | 1010.7 |
| 20260505121641 | 65 | 233 | 0.0 | 0.0 | 0.00 | 0.00 | 0.00 | 59 | 1010.7 |
| 20260505121521 | 65 | 232 | 0.0 | 0.0 | 0.00 | 0.00 | 0.00 | 59 | 1010.6 |
| 20260505121429 | 65 | 232 | 0.0 | 0.0 | 0.00 | 0.00 | 0.00 | 59 | 1010.6 |
| 20260505121330 | 65 | 232 | 0.0 | 0.0 | 0.00 | 0.00 | 0.00 | 59 | 1010.7 |
| 20260505121231 | 65 | 232 | 0.0 | 0.0 | 0.00 | 0.00 | 0.00 | 59 | 1010.6 |
| 20260505121140 | 65 | 232 | 0.0 | 0.0 | 0.00 | 0.00 | 0.00 | 59 | 1010.5 |
| 20260505121041 | 65 | 232 | 0.0 | 0.0 | 0.00 | 0.00 | 0.00 | 59 | 1010.6 |
| 20260505120928 | 65 | 232 | 0.0 | 0.0 | 0.00 | 0.00 | 0.00 | 59 | 1010.6 |
| 20260505120833 | 65 | 232 | 0.0 | 0.0 | 0.00 | 0.00 | 0.00 | 59 | 1010.6 |
| 20260505120735 | 65 | 232 | 0.0 | 0.0 | 0.00 | 0.00 | 0.00 | 59 | 1010.6 |
| 20260505120643 | 65 | 232 | 0.0 | 0.0 | 0.00 | 0.00 | 0.00 | 58 | 1010.5 |
| 20260505120544 | 65 | 232 | 0.0 | 0.0 | 0.00 | 0.00 | 0.00 | 58 | 1010.5 |
| 20260505120432 | 65 | 232 | 0.0 | 0.0 | 0.00 | 0.00 | 0.00 | 58 | 1010.5 |
| 20260505120333 | 65 | 232 | 0.0 | 0.0 | 0.00 | 0.00 | 0.00 | 58 | 1010.5 |
| 20260505120243 | 65 | 233 | 0.0 | 0.0 | 0.00 | 0.00 | 0.00 | 58 | 1010.5 |
| 20260505120126 | 65 | 233 | 0.0 | 0.0 | 0.00 | 0.00 | 0.00 | 58 | 1010.4 |
| 20260505120041 | 65 | 232 | 0.0 | 0.0 | 0.00 | 0.00 | 0.00 | 58 | 1010.4 |
| 20260505115938 | 65 | 232 | 0.0 | 0.0 | 0.00 | 0.00 | 0.00 | 58 | 1010.5 |
| 20260505115821 | 65 | 232 | 0.0 | 0.0 | 0.00 | 0.00 | 0.00 | 58 | 1010.4 |
| 20260505115723 | 65 | 232 | 0.0 | 0.0 | 0.00 | 0.00 | 0.00 | 58 | 1010.5 |
| 20260505115624 | 65 | 233 | 0.0 | 0.0 | 0.00 | 0.00 | 0.00 | 58 | 1010.5 |
| 20260505115537 | 65 | 232 | 0.0 | 1.0 | 0.00 | 0.00 | 0.00 | 58 | 1010.4 |
| 20260505115417 | 65 | 232 | 0.0 | 3.0 | 0.00 | 0.00 | 0.00 | 58 | 1010.4 |
| 20260505115345 | 65 | 232 | 0.0 | 3.0 | 0.00 | 0.00 | 0.00 | 58 | 1010.5 |
| 20260505115225 | 65 | 233 | 0.0 | 3.0 | 0.00 | 0.00 | 0.00 | 58 | 1010.5 |
| 20260505115132 | 65 | 233 | 0.0 | 3.0 | 0.00 | 0.00 | 0.00 | 58 | 1010.4 |
| 20260505115034 | 65 | 233 | 0.0 | 3.0 | 0.00 | 0.00 | 0.00 | 58 | 1010.4 |
| 20260505114915 | 65 | 232 | 0.0 | 3.0 | 0.00 | 0.00 | 0.00 | 57 | 1010.4 |
| 20260505114828 | 65 | 232 | 0.0 | 3.0 | 0.00 | 0.00 | 0.00 | 57 | 1010.4 |
| 20260505114751 | 65 | 233 | 1.0 | 3.0 | 0.00 | 0.00 | 0.00 | 57 | 1010.4 |
| 20260505114638 | 65 | 233 | 1.0 | 3.0 | 0.00 | 0.00 | 0.00 | 57 | 1010.4 |
| 20260505114520 | 65 | 233 | 0.0 | 3.0 | 0.00 | 0.00 | 0.00 | 57 | 1010.4 |
| 20260505114422 | 65 | 234 | 0.0 | 3.0 | 0.00 | 0.00 | 0.00 | 57 | 1010.4 |
| 20260505114324 | 65 | 234 | 0.0 | 1.0 | 0.00 | 0.00 | 0.00 | 57 | 1010.4 |
| 20260505114237 | 65 | 234 | 0.0 | 1.0 | 0.00 | 0.00 | 0.00 | 57 | 1010.4 |
| 20260505114120 | 65 | 234 | 0.0 | 1.0 | 0.00 | 0.00 | 0.00 | 56 | 1010.4 |
| 20260505114022 | 66 | 234 | 0.0 | 1.0 | 0.00 | 0.00 | 0.00 | 56 | 1010.5 |
| 20260505113931 | 66 | 234 | 0.0 | 1.0 | 0.00 | 0.00 | 0.00 | 56 | 1010.4 |
| 20260505113831 | 66 | 234 | 0.0 | 1.0 | 0.00 | 0.00 | 0.00 | 56 | 1010.4 |
| 20260505113740 | 66 | 234 | 0.0 | 1.0 | 0.00 | 0.00 | 0.00 | 56 | 1010.4 |
| 20260505113618 | 66 | 234 | 0.0 | 1.0 | 0.00 | 0.00 | 0.00 | 56 | 1010.4 |
| 20260505113531 | 66 | 234 | 0.0 | 0.0 | 0.00 | 0.00 | 0.00 | 56 | 1010.5 |
| 20260505113453 | 66 | 234 | 0.0 | 0.0 | 0.00 | 0.00 | 0.00 | 56 | 1010.5 |
| 20260505113342 | 66 | 234 | 0.0 | 0.0 | 0.00 | 0.00 | 0.00 | 56 | 1010.5 |
| 20260505113222 | 66 | 234 | 0.0 | 0.0 | 0.00 | 0.00 | 0.00 | 56 | 1010.5 |
| 20260505113124 | 66 | 234 | 0.0 | 0.0 | 0.00 | 0.00 | 0.00 | 56 | 1010.5 |
| 20260505113033 | 66 | 234 | 0.0 | 0.0 | 0.00 | 0.00 | 0.00 | 56 | 1010.4 |
| 20260505112935 | 66 | 234 | 0.0 | 0.0 | 0.00 | 0.00 | 0.00 | 56 | 1010.4 |
| 20260505112823 | 66 | 234 | 0.0 | 0.0 | 0.00 | 0.00 | 0.00 | 56 | 1010.4 |
| 20260505112729 | 66 | 234 | 0.0 | 0.0 | 0.00 | 0.00 | 0.00 | 56 | 1010.4 |
| 20260505112638 | 66 | 234 | 0.0 | 1.0 | 0.00 | 0.00 | 0.00 | 55 | 1010.4 |
| 20260505112539 | 66 | 234 | 0.0 | 5.0 | 0.00 | 0.00 | 0.00 | 56 | 1010.4 |
| 20260505112420 | 66 | 234 | 0.0 | 5.0 | 0.00 | 0.00 | 0.00 | 56 | 1010.4 |
| 20260505112328 | 66 | 234 | 0.0 | 5.0 | 0.00 | 0.00 | 0.00 | 55 | 1010.4 |
| 20260505112230 | 66 | 234 | 0.0 | 5.0 | 0.00 | 0.00 | 0.00 | 55 | 1010.3 |
| 20260505112137 | 66 | 234 | 0.0 | 5.0 | 0.00 | 0.00 | 0.00 | 55 | 1010.4 |
| 20260505112021 | 66 | 234 | 0.0 | 5.0 | 0.00 | 0.00 | 0.00 | 55 | 1010.4 |
| 20260505111949 | 66 | 235 | 0.0 | 5.0 | 0.00 | 0.00 | 0.00 | 55 | 1010.4 |
| 20260505111830 | 66 | 235 | 1.0 | 5.0 | 0.00 | 0.00 | 0.00 | 55 | 1010.4 |
| 20260505111731 | 66 | 235 | 1.0 | 5.0 | 0.00 | 0.00 | 0.00 | 55 | 1010.4 |
| 20260505111640 | 66 | 227 | 1.0 | 2.0 | 0.00 | 0.00 | 0.00 | 55 | 1010.4 |
| 20260505111522 | 66 | 236 | 0.0 | 2.0 | 0.00 | 0.00 | 0.00 | 55 | 1010.4 |
| 20260505111428 | 66 | 236 | 0.0 | 0.0 | 0.00 | 0.00 | 0.00 | 55 | 1010.3 |
| 20260505111339 | 66 | 236 | 0.0 | 3.0 | 0.00 | 0.00 | 0.00 | 55 | 1010.3 |
| 20260505111221 | 66 | 236 | 0.0 | 4.0 | 0.00 | 0.00 | 0.00 | 55 | 1010.3 |
| 20260505111121 | 66 | 236 | 0.0 | 5.0 | 0.00 | 0.00 | 0.00 | 55 | 1010.3 |
| 20260505111023 | 66 | 236 | 0.0 | 5.0 | 0.00 | 0.00 | 0.00 | 55 | 1010.3 |
| 20260505110932 | 66 | 236 | 0.0 | 5.0 | 0.00 | 0.00 | 0.00 | 55 | 1010.3 |
| 20260505110818 | 66 | 236 | 0.0 | 5.0 | 0.00 | 0.00 | 0.00 | 55 | 1010.4 |
| 20260505110720 | 67 | 236 | 0.0 | 5.0 | 0.00 | 0.00 | 0.00 | 54 | 1010.3 |
| 20260505110622 | 67 | 236 | 0.0 | 5.0 | 0.00 | 0.00 | 0.00 | 54 | 1010.3 |
| 20260505110531 | 67 | 236 | 1.0 | 5.0 | 0.00 | 0.00 | 0.00 | 54 | 1010.3 |
| 20260505110433 | 67 | 236 | 2.0 | 5.0 | 0.00 | 0.00 | 0.00 | 54 | 1010.2 |
| 20260505110403 | 67 | 236 | 2.0 | 5.0 | 0.00 | 0.00 | 0.00 | 54 | 1010.2 |
| 20260505110228 | 67 | 235 | 1.0 | 5.0 | 0.00 | 0.00 | 0.00 | 54 | 1010.2 |
| 20260505110130 | 67 | 235 | 2.0 | 5.0 | 0.00 | 0.00 | 0.00 | 54 | 1010.2 |
| 20260505102125 | 68 | 225 | 0.0 | 1.0 | 0.00 | 0.00 | 0.00 | 51 | 1010.6 |
| 20260505102025 | 68 | 225 | 0.0 | 1.0 | 0.00 | 0.00 | 0.00 | 51 | 1010.7 |
| 20260505101934 | 68 | 225 | 0.0 | 1.0 | 0.00 | 0.00 | 0.00 | 51 | 1010.7 |
| 20260505101817 | 68 | 225 | 0.0 | 2.0 | 0.00 | 0.00 | 0.00 | 51 | 1010.7 |
| 20260505101718 | 68 | 225 | 0.0 | 2.0 | 0.00 | 0.00 | 0.00 | 51 | 1010.7 |
| 20260505101626 | 68 | 225 | 0.0 | 2.0 | 0.00 | 0.00 | 0.00 | 51 | 1010.8 |
| 20260505101527 | 68 | 225 | 0.0 | 2.0 | 0.00 | 0.00 | 0.00 | 51 | 1010.8 |
| 20260505101440 | 68 | 225 | 0.0 | 2.0 | 0.00 | 0.00 | 0.00 | 51 | 1010.8 |
| 20260505101322 | 68 | 222 | 0.0 | 2.0 | 0.00 | 0.00 | 0.00 | 51 | 1010.7 |
| 20260505101226 | 68 | 226 | 0.0 | 2.0 | 0.00 | 0.00 | 0.00 | 51 | 1010.7 |
| 20260505101129 | 68 | 226 | 0.0 | 2.0 | 0.00 | 0.00 | 0.00 | 50 | 1010.7 |
| 20260505101037 | 68 | 226 | 0.0 | 2.0 | 0.00 | 0.00 | 0.00 | 50 | 1010.7 |
| 20260505100920 | 68 | 230 | 0.0 | 1.0 | 0.00 | 0.00 | 0.00 | 50 | 1010.7 |
| 20260505100827 | 68 | 193 | 0.0 | 1.0 | 0.00 | 0.00 | 0.00 | 50 | 1010.7 |
| 20260505100756 | 68 | 235 | 0.0 | 1.0 | 0.00 | 0.00 | 0.00 | 50 | 1010.6 |
| 20260505100635 | 68 | 226 | 0.0 | 6.0 | 0.00 | 0.00 | 0.00 | 50 | 1010.7 |
| 20260505100544 | 68 | 222 | 0.0 | 9.0 | 0.00 | 0.00 | 0.00 | 50 | 1010.6 |
| 20260505100425 | 68 | 223 | 0.0 | 11.0 | 0.00 | 0.00 | 0.00 | 50 | 1010.6 |
| 20260505100327 | 68 | 211 | 0.0 | 11.0 | 0.00 | 0.00 | 0.00 | 50 | 1010.6 |
| 20260505100256 | 68 | 222 | 0.0 | 11.0 | 0.00 | 0.00 | 0.00 | 50 | 1010.7 |
| 20260505100140 | 68 | 231 | 0.0 | 11.0 | 0.00 | 0.00 | 0.00 | 50 | 1010.7 |
| 20260505100041 | 68 | 229 | 0.0 | 11.0 | 0.00 | 0.00 | 0.00 | 50 | 1010.7 |
| 20260505095932 | 68 | 215 | 1.0 | 11.0 | 0.00 | 0.00 | 0.00 | 49 | 1010.7 |
| 20260505095841 | 68 | 221 | 3.0 | 11.0 | 0.00 | 0.00 | 0.00 | 49 | 1010.7 |
| 20260505095723 | 68 | 218 | 6.0 | 11.0 | 0.00 | 0.00 | 0.00 | 49 | 1010.9 |
| 20260505095625 | 68 | 221 | 6.0 | 11.0 | 0.00 | 0.00 | 0.00 | 49 | 1011.0 |
| 20260505095554 | 68 | 222 | 4.0 | 11.0 | 0.00 | 0.00 | 0.00 | 49 | 1010.9 |
| 20260505095420 | 69 | 212 | 5.0 | 11.0 | 0.00 | 0.00 | 0.00 | 49 | 1011.0 |
| 20260505095321 | 69 | 228 | 6.0 | 11.0 | 0.00 | 0.00 | 0.00 | 49 | 1010.9 |
| 20260505095230 | 69 | 236 | 4.0 | 11.0 | 0.00 | 0.00 | 0.00 | 49 | 1011.0 |
| 20260505095132 | 69 | 217 | 4.0 | 11.0 | 0.00 | 0.00 | 0.00 | 49 | 1011.1 |
| 20260505095040 | 69 | 219 | 4.0 | 11.0 | 0.00 | 0.00 | 0.00 | 49 | 1011.1 |
| 20260505094942 | 69 | 224 | 3.0 | 11.0 | 0.00 | 0.00 | 0.00 | 49 | 1011.1 |
| 20260505094823 | 69 | 219 | 4.0 | 9.0 | 0.00 | 0.00 | 0.00 | 49 | 1011.1 |
| 20260505094736 | 69 | 220 | 4.0 | 9.0 | 0.00 | 0.00 | 0.00 | 49 | 1011.1 |
| 20260505094617 | 69 | 224 | 5.0 | 9.0 | 0.00 | 0.00 | 0.00 | 49 | 1011.1 |
| 20260505094519 | 69 | 227 | 3.0 | 9.0 | 0.00 | 0.00 | 0.00 | 49 | 1011.1 |
| 20260505094420 | 69 | 214 | 3.0 | 10.0 | 0.00 | 0.00 | 0.00 | 49 | 1011.2 |
| 20260505094329 | 69 | 224 | 4.0 | 10.0 | 0.00 | 0.00 | 0.00 | 48 | 1011.1 |
| 20260505094230 | 69 | 224 | 2.0 | 10.0 | 0.00 | 0.00 | 0.00 | 48 | 1011.2 |
| 20260505094117 | 69 | 224 | 1.0 | 10.0 | 0.00 | 0.00 | 0.00 | 48 | 1011.2 |
| 20260505094026 | 69 | 224 | 2.0 | 10.0 | 0.00 | 0.00 | 0.00 | 48 | 1011.3 |
| 20260505093928 | 69 | 224 | 3.0 | 10.0 | 0.00 | 0.00 | 0.00 | 48 | 1011.2 |
| 20260505093829 | 69 | 175 | 2.0 | 10.0 | 0.00 | 0.00 | 0.00 | 48 | 1011.3 |
| 20260505093738 | 69 | 212 | 2.0 | 10.0 | 0.00 | 0.00 | 0.00 | 48 | 1011.2 |
| 20260505093619 | 69 | 203 | 2.0 | 10.0 | 0.00 | 0.00 | 0.00 | 48 | 1011.3 |
| 20260505093525 | 69 | 224 | 0.0 | 1.0 | 0.00 | 0.00 | 0.00 | 48 | 1011.2 |
| 20260505093436 | 69 | 238 | 0.0 | 1.0 | 0.00 | 0.00 | 0.00 | 48 | 1011.1 |
| 20260505093317 | 69 | 211 | 0.0 | 3.0 | 0.00 | 0.00 | 0.00 | 47 | 1011.1 |
| 20260505093220 | 69 | 211 | 0.0 | 3.0 | 0.00 | 0.00 | 0.00 | 47 | 1011.1 |
| 20260505093122 | 69 | 216 | 0.0 | 3.0 | 0.00 | 0.00 | 0.00 | 47 | 1011.2 |
| 20260505093031 | 69 | 218 | 0.0 | 3.0 | 0.00 | 0.00 | 0.00 | 47 | 1011.1 |
| 20260505092936 | 69 | 221 | 0.0 | 3.0 | 0.00 | 0.00 | 0.00 | 47 | 1011.1 |
| 20260505092818 | 69 | 221 | 0.0 | 3.0 | 0.00 | 0.00 | 0.00 | 47 | 1011.1 |
| 20260505092726 | 69 | 238 | 0.0 | 3.0 | 0.00 | 0.00 | 0.00 | 47 | 1011.1 |
| 20260505092628 | 69 | 217 | 0.0 | 3.0 | 0.00 | 0.00 | 0.00 | 47 | 1011.2 |
| 20260505092540 | 69 | 226 | 0.0 | 3.0 | 0.00 | 0.00 | 0.00 | 47 | 1011.2 |
| 20260505092441 | 69 | 230 | 0.0 | 2.0 | 0.00 | 0.00 | 0.00 | 47 | 1011.2 |
| 20260505092325 | 69 | 231 | 0.0 | 2.0 | 0.00 | 0.00 | 0.00 | 47 | 1011.2 |
| 20260505092234 | 69 | 257 | 0.0 | 2.0 | 0.00 | 0.00 | 0.00 | 47 | 1011.2 |
| 20260505092116 | 69 | 231 | 0.0 | 2.0 | 0.00 | 0.00 | 0.00 | 46 | 1011.2 |
| 20260505092018 | 69 | 256 | 0.0 | 2.0 | 0.00 | 0.00 | 0.00 | 46 | 1011.2 |
| 20260505091920 | 69 | 217 | 0.0 | 0.0 | 0.00 | 0.00 | 0.00 | 46 | 1011.2 |
| 20260505091849 | 69 | 244 | 0.0 | 0.0 | 0.00 | 0.00 | 0.00 | 46 | 1011.1 |
| 20260505091757 | 69 | 244 | 0.0 | 0.0 | 0.00 | 0.00 | 0.00 | 46 | 1011.1 |
| 20260505091622 | 69 | 244 | 0.0 | 0.0 | 0.00 | 0.00 | 0.00 | 46 | 1011.1 |
| 20260505091524 | 69 | 245 | 0.0 | 1.0 | 0.00 | 0.00 | 0.00 | 46 | 1011.1 |
| 20260505091432 | 69 | 247 | 0.0 | 7.0 | 0.00 | 0.00 | 0.00 | 46 | 1011.1 |
| 20260505091333 | 69 | 247 | 0.0 | 8.0 | 0.00 | 0.00 | 0.00 | 46 | 1011.2 |
| 20260505091303 | 69 | 248 | 0.0 | 8.0 | 0.00 | 0.00 | 0.00 | 46 | 1011.2 |
| 20260505091122 | 69 | 243 | 0.0 | 8.0 | 0.00 | 0.00 | 0.00 | 46 | 1011.2 |
| 20260505091024 | 69 | 243 | 0.0 | 8.0 | 0.00 | 0.00 | 0.00 | 46 | 1011.2 |
| 20260505090916 | 69 | 244 | 0.0 | 8.0 | 0.00 | 0.00 | 0.00 | 46 | 1011.1 |
| 20260505090818 | 69 | 245 | 1.0 | 8.0 | 0.00 | 0.00 | 0.00 | 46 | 1011.1 |
| 20260505090726 | 69 | 235 | 3.0 | 8.0 | 0.00 | 0.00 | 0.00 | 46 | 1011.1 |
| 20260505090629 | 70 | 235 | 4.0 | 8.0 | 0.00 | 0.00 | 0.00 | 46 | 1011.0 |
| 20260505090530 | 70 | 231 | 2.0 | 7.0 | 0.00 | 0.00 | 0.00 | 46 | 1011.0 |
| 20260505090440 | 70 | 229 | 2.0 | 7.0 | 0.00 | 0.00 | 0.00 | 46 | 1011.0 |
| 20260505090340 | 70 | 230 | 1.0 | 7.0 | 0.00 | 0.00 | 0.00 | 45 | 1011.0 |
| 20260505090224 | 70 | 231 | 0.0 | 7.0 | 0.00 | 0.00 | 0.00 | 45 | 1011.0 |
| 20260505090152 | 70 | 231 | 1.0 | 7.0 | 0.00 | 0.00 | 0.00 | 45 | 1011.1 |
| 20260505090030 | 70 | 231 | 1.0 | 7.0 | 0.00 | 0.00 | 0.00 | 45 | 1011.0 |
| 20260505085921 | 70 | 231 | 1.0 | 7.0 | 0.00 | 0.00 | 0.00 | 45 | 1011.0 |
| 20260505085824 | 70 | 231 | 2.0 | 7.0 | 0.00 | 0.00 | 0.00 | 45 | 1011.0 |
| 20260505085732 | 70 | 231 | 2.0 | 7.0 | 0.00 | 0.00 | 0.00 | 45 | 1011.0 |
| 20260505085619 | 70 | 229 | 1.0 | 6.0 | 0.00 | 0.00 | 0.00 | 45 | 1011.1 |
| 20260505085520 | 70 | 231 | 1.0 | 6.0 | 0.00 | 0.00 | 0.00 | 45 | 1011.1 |
| 20260505085449 | 70 | 231 | 0.0 | 1.0 | 0.00 | 0.00 | 0.00 | 45 | 1011.1 |
| 20260505085350 | 70 | 231 | 0.0 | 1.0 | 0.00 | 0.00 | 0.00 | 45 | 1011.1 |
| 20260505085256 | 70 | 231 | 0.0 | 0.0 | 0.00 | 0.00 | 0.00 | 45 | 1011.1 |
| 20260505085137 | 70 | 231 | 0.0 | 1.0 | 0.00 | 0.00 | 0.00 | 45 | 1011.1 |
| 20260505085025 | 70 | 231 | 0.0 | 1.0 | 0.00 | 0.00 | 0.00 | 44 | 1011.1 |
| 20260505084926 | 70 | 232 | 0.0 | 1.0 | 0.00 | 0.00 | 0.00 | 44 | 1011.1 |
| 20260505084840 | 70 | 232 | 0.0 | 1.0 | 0.00 | 0.00 | 0.00 | 44 | 1011.1 |
| 20260505084722 | 70 | 232 | 0.0 | 1.0 | 0.00 | 0.00 | 0.00 | 44 | 1011.1 |
| 20260505084621 | 70 | 232 | 0.0 | 1.0 | 0.00 | 0.00 | 0.00 | 44 | 1011.1 |
| 20260505084550 | 70 | 232 | 0.0 | 1.0 | 0.00 | 0.00 | 0.00 | 44 | 1011.2 |
| 20260505084432 | 70 | 232 | 0.0 | 1.0 | 0.00 | 0.00 | 0.00 | 44 | 1011.1 |
| 20260505084334 | 70 | 231 | 0.0 | 1.0 | 0.00 | 0.00 | 0.00 | 44 | 1011.1 |
| 20260505084219 | 70 | 229 | 0.0 | 0.0 | 0.00 | 0.00 | 0.00 | 44 | 1011.2 |
| 20260505084149 | 70 | 228 | 0.0 | 0.0 | 0.00 | 0.00 | 0.00 | 44 | 1011.3 |
| 20260505084030 | 70 | 228 | 0.0 | 1.0 | 0.00 | 0.00 | 0.00 | 44 | 1011.3 |
| 20260505083939 | 70 | 228 | 0.0 | 1.0 | 0.00 | 0.00 | 0.00 | 44 | 1011.3 |
| 20260505083821 | 70 | 228 | 0.0 | 1.0 | 0.00 | 0.00 | 0.00 | 44 | 1011.4 |
| 20260505083723 | 70 | 228 | 0.0 | 2.0 | 0.00 | 0.00 | 0.00 | 43 | 1011.4 |
| 20260505083624 | 70 | 228 | 0.0 | 5.0 | 0.00 | 0.00 | 0.00 | 43 | 1011.5 |
| 20260505083537 | 70 | 228 | 0.0 | 5.0 | 0.00 | 0.00 | 0.00 | 43 | 1011.5 |
| 20260505083417 | 70 | 228 | 0.0 | 5.0 | 0.00 | 0.00 | 0.00 | 43 | 1011.5 |
| 20260505083318 | 70 | 228 | 0.0 | 5.0 | 0.00 | 0.00 | 0.00 | 43 | 1011.4 |
| 20260505083227 | 70 | 228 | 0.0 | 5.0 | 0.00 | 0.00 | 0.00 | 43 | 1011.5 |
| 20260505083129 | 70 | 227 | 0.0 | 5.0 | 0.00 | 0.00 | 0.00 | 43 | 1011.6 |
| 20260505083040 | 70 | 227 | 0.0 | 5.0 | 0.00 | 0.00 | 0.00 | 43 | 1011.6 |
| 20260505082924 | 70 | 227 | 1.0 | 5.0 | 0.00 | 0.00 | 0.00 | 43 | 1011.7 |
| 20260505082828 | 70 | 227 | 1.0 | 5.0 | 0.00 | 0.00 | 0.00 | 43 | 1011.7 |
| 20260505082735 | 70 | 226 | 0.0 | 5.0 | 0.00 | 0.00 | 0.00 | 43 | 1011.7 |
| 20260505082617 | 70 | 227 | 0.0 | 5.0 | 0.00 | 0.00 | 0.00 | 43 | 1011.7 |
| 20260505082520 | 70 | 227 | 0.0 | 5.0 | 0.00 | 0.00 | 0.00 | 43 | 1011.7 |
| 20260505082423 | 70 | 226 | 0.0 | 5.0 | 0.00 | 0.00 | 0.00 | 43 | 1011.8 |
| 20260505082336 | 70 | 226 | 0.0 | 5.0 | 0.00 | 0.00 | 0.00 | 43 | 1011.8 |
| 20260505082237 | 70 | 227 | 1.0 | 5.0 | 0.00 | 0.00 | 0.00 | 43 | 1011.9 |
| 20260505082145 | 70 | 227 | 2.0 | 5.0 | 0.00 | 0.00 | 0.00 | 43 | 1011.9 |
| 20260505082023 | 70 | 227 | 1.0 | 7.0 | 0.00 | 0.00 | 0.00 | 43 | 1011.8 |
| 20260505081925 | 70 | 226 | 0.0 | 7.0 | 0.00 | 0.00 | 0.00 | 43 | 1011.8 |
| 20260505081826 | 70 | 226 | 0.0 | 7.0 | 0.00 | 0.00 | 0.00 | 43 | 1011.9 |
| 20260505081736 | 70 | 230 | 0.0 | 7.0 | 0.00 | 0.00 | 0.00 | 43 | 1011.8 |
| 20260505081640 | 70 | 231 | 0.0 | 7.0 | 0.00 | 0.00 | 0.00 | 43 | 1011.8 |
| 20260505081520 | 70 | 233 | 0.0 | 7.0 | 0.00 | 0.00 | 0.00 | 43 | 1011.8 |
| 20260505081429 | 70 | 232 | 1.0 | 7.0 | 0.00 | 0.00 | 0.00 | 42 | 1011.9 |
| 20260505081331 | 70 | 232 | 2.0 | 7.0 | 0.00 | 0.00 | 0.00 | 42 | 1011.9 |
| 20260505081241 | 70 | 232 | 2.0 | 7.0 | 0.00 | 0.00 | 0.00 | 42 | 1011.9 |
| 20260505081140 | 70 | 232 | 1.0 | 3.0 | 0.00 | 0.00 | 0.00 | 42 | 1011.9 |
| 20260505081026 | 70 | 232 | 0.0 | 3.0 | 0.00 | 0.00 | 0.00 | 42 | 1011.8 |
| 20260505080928 | 70 | 232 | 0.0 | 0.0 | 0.00 | 0.00 | 0.00 | 42 | 1011.9 |
| 20260505080816 | 70 | 232 | 0.0 | 0.0 | 0.00 | 0.00 | 0.00 | 42 | 1011.9 |
| 20260505080717 | 70 | 232 | 0.0 | 0.0 | 0.00 | 0.00 | 0.00 | 42 | 1011.9 |
| 20260505080646 | 70 | 231 | 0.0 | 0.0 | 0.00 | 0.00 | 0.00 | 42 | 1011.8 |
| 20260505080533 | 70 | 233 | 0.0 | 0.0 | 0.00 | 0.00 | 0.00 | 42 | 1011.9 |
| 20260505080434 | 70 | 232 | 0.0 | 0.0 | 0.00 | 0.00 | 0.00 | 42 | 1011.8 |
| 20260505080320 | 70 | 233 | 0.0 | 0.0 | 0.00 | 0.00 | 0.00 | 42 | 1011.7 |
| 20260505080222 | 70 | 235 | 0.0 | 0.0 | 0.00 | 0.00 | 0.00 | 41 | 1011.7 |
| 20260505080131 | 70 | 236 | 0.0 | 0.0 | 0.00 | 0.00 | 0.00 | 41 | 1011.7 |
| 20260505080113 | 70 | 236 | 0.0 | 0.0 | 0.00 | 0.00 | 0.00 | 41 | 1011.7 |
| 20260505075921 | 70 | 236 | 0.0 | 0.0 | 0.00 | 0.00 | 0.00 | 41 | 1011.6 |
| 20260505075843 | 70 | 236 | 0.0 | 0.0 | 0.00 | 0.00 | 0.00 | 41 | 1011.7 |
| 20260505075731 | 70 | 235 | 0.0 | 0.0 | 0.00 | 0.00 | 0.00 | 41 | 1011.6 |
| 20260505075617 | 70 | 236 | 0.0 | 0.0 | 0.00 | 0.00 | 0.00 | 41 | 1011.6 |
| 20260505075519 | 70 | 236 | 0.0 | 0.0 | 0.00 | 0.00 | 0.00 | 41 | 1011.7 |
| 20260505075420 | 70 | 236 | 0.0 | 0.0 | 0.00 | 0.00 | 0.00 | 41 | 1011.6 |
| 20260505075329 | 70 | 236 | 0.0 | 0.0 | 0.00 | 0.00 | 0.00 | 41 | 1011.7 |
| 20260505075237 | 70 | 236 | 0.0 | 0.0 | 0.00 | 0.00 | 0.00 | 41 | 1011.7 |
| 20260505075139 | 70 | 236 | 0.0 | 0.0 | 0.00 | 0.00 | 0.00 | 41 | 1011.7 |
| 20260505075019 | 70 | 236 | 0.0 | 0.0 | 0.00 | 0.00 | 0.00 | 41 | 1011.7 |
| 20260505074933 | 71 | 236 | 0.0 | 0.0 | 0.00 | 0.00 | 0.00 | 41 | 1011.7 |
| 20260505074855 | 71 | 236 | 0.0 | 0.0 | 0.00 | 0.00 | 0.00 | 41 | 1011.7 |
| 20260505074721 | 71 | 236 | 0.0 | 0.0 | 0.00 | 0.00 | 0.00 | 42 | 1011.7 |
| 20260505074623 | 71 | 236 | 0.0 | 0.0 | 0.00 | 0.00 | 0.00 | 41 | 1011.8 |
| 20260505074552 | 71 | 236 | 0.0 | 0.0 | 0.00 | 0.00 | 0.00 | 41 | 1011.8 |
| 20260505074433 | 71 | 236 | 0.0 | 0.0 | 0.00 | 0.00 | 0.00 | 41 | 1011.8 |
| 20260505074334 | 71 | 236 | 0.0 | 0.0 | 0.00 | 0.00 | 0.00 | 41 | 1011.8 |
| 20260505074230 | 71 | 236 | 0.0 | 0.0 | 0.00 | 0.00 | 0.00 | 41 | 1011.8 |
| 20260505074130 | 71 | 236 | 0.0 | 0.0 | 0.00 | 0.00 | 0.00 | 41 | 1011.8 |
| 20260505074058 | 71 | 236 | 0.0 | 0.0 | 0.00 | 0.00 | 0.00 | 41 | 1011.7 |
| 20260505073919 | 71 | 236 | 0.0 | 0.0 | 0.00 | 0.00 | 0.00 | 41 | 1011.8 |
| 20260505073821 | 71 | 236 | 0.0 | 0.0 | 0.00 | 0.00 | 0.00 | 41 | 1011.7 |
| 20260505073724 | 71 | 236 | 0.0 | 0.0 | 0.00 | 0.00 | 0.00 | 41 | 1011.7 |
| 20260505073653 | 71 | 236 | 0.0 | 0.0 | 0.00 | 0.00 | 0.00 | 41 | 1011.7 |
| 20260505073536 | 71 | 236 | 0.0 | 0.0 | 0.00 | 0.00 | 0.00 | 41 | 1011.7 |
| 20260505073417 | 71 | 236 | 0.0 | 0.0 | 0.00 | 0.00 | 0.00 | 41 | 1011.7 |
| 20260505073346 | 71 | 236 | 0.0 | 0.0 | 0.00 | 0.00 | 0.00 | 41 | 1011.7 |
| 20260505073226 | 71 | 236 | 0.0 | 0.0 | 0.00 | 0.00 | 0.00 | 41 | 1011.7 |
| 20260505073136 | 71 | 236 | 0.0 | 0.0 | 0.00 | 0.00 | 0.00 | 41 | 1011.7 |
| 20260505073018 | 71 | 236 | 0.0 | 0.0 | 0.00 | 0.00 | 0.00 | 41 | 1011.7 |
| 20260505072924 | 71 | 236 | 0.0 | 0.0 | 0.00 | 0.00 | 0.00 | 41 | 1011.6 |
| 20260505072825 | 71 | 236 | 0.0 | 0.0 | 0.00 | 0.00 | 0.00 | 41 | 1011.5 |
| 20260505072731 | 71 | 236 | 0.0 | 0.0 | 0.00 | 0.00 | 0.00 | 41 | 1011.5 |
| 20260505072641 | 71 | 236 | 0.0 | 0.0 | 0.00 | 0.00 | 0.00 | 41 | 1011.5 |
| 20260505072523 | 71 | 236 | 0.0 | 0.0 | 0.00 | 0.00 | 0.00 | 41 | 1011.4 |
| 20260505072423 | 71 | 236 | 0.0 | 0.0 | 0.00 | 0.00 | 0.00 | 41 | 1011.4 |
| 20260505072329 | 71 | 236 | 0.0 | 0.0 | 0.00 | 0.00 | 0.00 | 41 | 1011.3 |
| 20260505072237 | 71 | 236 | 0.0 | 0.0 | 0.00 | 0.00 | 0.00 | 41 | 1011.3 |
| 20260505072118 | 71 | 236 | 0.0 | 0.0 | 0.00 | 0.00 | 0.00 | 41 | 1011.5 |
| 20260505072027 | 71 | 236 | 0.0 | 0.0 | 0.00 | 0.00 | 0.00 | 41 | 1011.3 |
| 20260505071929 | 71 | 236 | 0.0 | 0.0 | 0.00 | 0.00 | 0.00 | 41 | 1011.4 |
| 20260505071830 | 71 | 236 | 0.0 | 0.0 | 0.00 | 0.00 | 0.00 | 41 | 1011.3 |
| 20260505071740 | 71 | 236 | 0.0 | 0.0 | 0.00 | 0.00 | 0.00 | 41 | 1011.3 |
| 20260505071626 | 71 | 236 | 0.0 | 0.0 | 0.00 | 0.00 | 0.00 | 41 | 1011.4 |
| 20260505071529 | 71 | 236 | 0.0 | 0.0 | 0.00 | 0.00 | 0.00 | 41 | 1011.4 |
| 20260505071429 | 71 | 236 | 0.0 | 0.0 | 0.00 | 0.00 | 0.00 | 41 | 1011.5 |
| 20260505071339 | 71 | 236 | 0.0 | 0.0 | 0.00 | 0.00 | 0.00 | 41 | 1011.5 |
| 20260505071221 | 71 | 236 | 0.0 | 0.0 | 0.00 | 0.00 | 0.00 | 40 | 1011.6 |
| 20260505071143 | 71 | 236 | 0.0 | 0.0 | 0.00 | 0.00 | 0.00 | 41 | 1011.6 |
| 20260505071034 | 71 | 236 | 0.0 | 0.0 | 0.00 | 0.00 | 0.00 | 41 | 1011.6 |
| 20260505070917 | 71 | 236 | 0.0 | 0.0 | 0.00 | 0.00 | 0.00 | 41 | 1011.7 |
| 20260505070824 | 71 | 236 | 0.0 | 0.0 | 0.00 | 0.00 | 0.00 | 41 | 1011.6 |
| 20260505070726 | 71 | 236 | 0.0 | 0.0 | 0.00 | 0.00 | 0.00 | 40 | 1011.7 |
| 20260505070629 | 72 | 238 | 0.0 | 3.0 | 0.00 | 0.00 | 0.00 | 41 | 1011.7 |
| 20260505070537 | 72 | 238 | 0.0 | 3.0 | 0.00 | 0.00 | 0.00 | 41 | 1011.7 |
| 20260505070423 | 72 | 238 | 0.0 | 3.0 | 0.00 | 0.00 | 0.00 | 40 | 1011.6 |
| 20260505070324 | 72 | 238 | 0.0 | 3.0 | 0.00 | 0.00 | 0.00 | 40 | 1011.5 |
| 20260505070225 | 72 | 238 | 0.0 | 4.0 | 0.00 | 0.00 | 0.00 | 40 | 1011.6 |
| 20260505070135 | 72 | 238 | 0.0 | 4.0 | 0.00 | 0.00 | 0.00 | 40 | 1011.6 |
| 20260505070028 | 72 | 238 | 0.0 | 4.0 | 0.00 | 0.00 | 0.00 | 40 | 1011.6 |
| 20260505065918 | 72 | 238 | 1.0 | 4.0 | 0.00 | 0.00 | 0.00 | 40 | 1011.6 |
| 20260505065848 | 72 | 238 | 1.0 | 4.0 | 0.00 | 0.00 | 0.00 | 40 | 1011.7 |
| 20260505065800 | 72 | 240 | 1.0 | 5.0 | 0.00 | 0.00 | 0.00 | 40 | 1011.7 |
| 20260505065640 | 72 | 239 | 0.0 | 5.0 | 0.00 | 0.00 | 0.00 | 40 | 1011.6 |
| 20260505065521 | 72 | 238 | 0.0 | 5.0 | 0.00 | 0.00 | 0.00 | 40 | 1011.6 |
| 20260505065430 | 72 | 238 | 0.0 | 5.0 | 0.00 | 0.00 | 0.00 | 40 | 1011.7 |
| 20260505065351 | 72 | 240 | 0.0 | 5.0 | 0.00 | 0.00 | 0.00 | 40 | 1011.6 |
| 20260505065240 | 72 | 240 | 0.0 | 5.0 | 0.00 | 0.00 | 0.00 | 40 | 1011.6 |
| 20260505065121 | 72 | 241 | 0.0 | 5.0 | 0.00 | 0.00 | 0.00 | 40 | 1011.7 |
| 20260505065028 | 72 | 241 | 1.0 | 5.0 | 0.00 | 0.00 | 0.00 | 40 | 1011.7 |
| 20260505064929 | 72 | 241 | 2.0 | 5.0 | 0.00 | 0.00 | 0.00 | 40 | 1011.7 |
| 20260505064840 | 72 | 240 | 1.0 | 5.0 | 0.00 | 0.00 | 0.00 | 40 | 1011.7 |
| 20260505064722 | 72 | 242 | 0.0 | 1.0 | 0.00 | 0.00 | 0.00 | 40 | 1011.8 |
| 20260505064624 | 72 | 245 | 0.0 | 0.0 | 0.00 | 0.00 | 0.00 | 40 | 1011.7 |
| 20260505064527 | 72 | 245 | 0.0 | 0.0 | 0.00 | 0.00 | 0.00 | 40 | 1011.7 |
| 20260505064420 | 72 | 245 | 0.0 | 0.0 | 0.00 | 0.00 | 0.00 | 40 | 1011.6 |
| 20260505064322 | 72 | 245 | 0.0 | 0.0 | 0.00 | 0.00 | 0.00 | 40 | 1011.7 |
| 20260505064229 | 72 | 245 | 0.0 | 0.0 | 0.00 | 0.00 | 0.00 | 40 | 1011.6 |
| 20260505064129 | 72 | 245 | 0.0 | 0.0 | 0.00 | 0.00 | 0.00 | 40 | 1011.6 |
| 20260505064043 | 72 | 245 | 0.0 | 0.0 | 0.00 | 0.00 | 0.00 | 40 | 1011.6 |
| 20260505063832 | 72 | 245 | 0.0 | 0.0 | 0.00 | 0.00 | 0.00 | 40 | 1011.5 |
| 20260505063801 | 72 | 245 | 0.0 | 0.0 | 0.00 | 0.00 | 0.00 | 40 | 1011.6 |
| 20260505063622 | 72 | 245 | 0.0 | 1.0 | 0.00 | 0.00 | 0.00 | 41 | 1011.5 |
| 20260505063523 | 72 | 245 | 0.0 | 1.0 | 0.00 | 0.00 | 0.00 | 41 | 1011.6 |
| 20260505063425 | 72 | 247 | 0.0 | 1.0 | 0.00 | 0.00 | 0.00 | 41 | 1011.6 |
| 20260505063334 | 72 | 247 | 0.0 | 1.0 | 0.00 | 0.00 | 0.00 | 41 | 1011.5 |
| 20260505063220 | 72 | 247 | 0.0 | 1.0 | 0.00 | 0.00 | 0.00 | 41 | 1011.6 |
| 20260505063142 | 72 | 247 | 0.0 | 1.0 | 0.00 | 0.00 | 0.00 | 41 | 1011.6 |
| 20260505063050 | 72 | 247 | 0.0 | 1.0 | 0.00 | 0.00 | 0.00 | 42 | 1011.5 |
| 20260505062959 | 72 | 247 | 0.0 | 1.0 | 0.00 | 0.00 | 0.00 | 42 | 1011.5 |
| 20260505062818 | 72 | 247 | 0.0 | 1.0 | 0.00 | 0.00 | 0.00 | 42 | 1011.4 |
| 20260505062726 | 72 | 247 | 0.0 | 1.0 | 0.00 | 0.00 | 0.00 | 42 | 1011.4 |
| 20260505062628 | 72 | 247 | 0.0 | 0.0 | 0.00 | 0.00 | 0.00 | 43 | 1011.4 |
| 20260505062537 | 72 | 247 | 0.0 | 0.0 | 0.00 | 0.00 | 0.00 | 43 | 1011.4 |
| 20260505062424 | 72 | 246 | 0.0 | 0.0 | 0.00 | 0.00 | 0.00 | 44 | 1011.3 |
| 20260505062325 | 72 | 247 | 0.0 | 0.0 | 0.00 | 0.00 | 0.00 | 45 | 1011.3 |
| 20260505062228 | 72 | 247 | 0.0 | 0.0 | 0.00 | 0.00 | 0.00 | 45 | 1011.3 |
| 20260505062136 | 72 | 246 | 0.0 | 0.0 | 0.00 | 0.00 | 0.00 | 45 | 1011.3 |
| 20260505062018 | 72 | 247 | 0.0 | 0.0 | 0.00 | 0.00 | 0.00 | 45 | 1011.2 |
| 20260505061920 | 72 | 246 | 0.0 | 0.0 | 0.00 | 0.00 | 0.00 | 45 | 1011.2 |
| 20260505061853 | 72 | 246 | 0.0 | 1.0 | 0.00 | 0.00 | 0.00 | 45 | 1011.2 |
| 20260505061734 | 72 | 246 | 0.0 | 2.0 | 0.00 | 0.00 | 0.00 | 45 | 1011.2 |
| 20260505061636 | 72 | 246 | 0.0 | 2.0 | 0.00 | 0.00 | 0.00 | 45 | 1011.2 |
| 20260505061525 | 72 | 246 | 0.0 | 2.0 | 0.00 | 0.00 | 0.00 | 45 | 1011.2 |
| 20260505061428 | 72 | 246 | 0.0 | 2.0 | 0.00 | 0.00 | 0.00 | 45 | 1011.1 |
| 20260505061330 | 72 | 246 | 0.0 | 2.0 | 0.00 | 0.00 | 0.00 | 45 | 1011.1 |
| 20260505061216 | 72 | 247 | 0.0 | 2.0 | 0.00 | 0.00 | 0.00 | 45 | 1011.2 |
| 20260505061124 | 72 | 246 | 0.0 | 2.0 | 0.00 | 0.00 | 0.00 | 45 | 1011.1 |
| 20260505061026 | 72 | 246 | 0.0 | 2.0 | 0.00 | 0.00 | 0.00 | 45 | 1011.1 |
| 20260505060927 | 72 | 247 | 0.0 | 2.0 | 0.00 | 0.00 | 0.00 | 45 | 1011.0 |
| 20260505060816 | 72 | 247 | 0.0 | 4.0 | 0.00 | 0.00 | 0.00 | 45 | 1011.1 |
| 20260505060745 | 72 | 247 | 0.0 | 4.0 | 0.00 | 0.00 | 0.00 | 45 | 1011.1 |
| 20260505060624 | 72 | 247 | 0.0 | 4.0 | 0.00 | 0.00 | 0.00 | 45 | 1011.1 |
| 20260505060533 | 72 | 247 | 0.0 | 4.0 | 0.00 | 0.00 | 0.00 | 45 | 1011.0 |
| 20260505060420 | 72 | 245 | 0.0 | 4.0 | 0.00 | 0.00 | 0.00 | 45 | 1011.1 |
| 20260505060322 | 72 | 245 | 0.0 | 4.0 | 0.00 | 0.00 | 0.00 | 45 | 1011.0 |
| 20260505060224 | 72 | 245 | 1.0 | 4.0 | 0.00 | 0.00 | 0.00 | 45 | 1011.0 |
| 20260505060132 | 72 | 245 | 1.0 | 4.0 | 0.00 | 0.00 | 0.00 | 45 | 1011.0 |
| 20260505060114 | 72 | 246 | 1.0 | 4.0 | 0.00 | 0.00 | 0.00 | 45 | 1011.0 |
| 20260505055920 | 72 | 245 | 0.0 | 0.0 | 0.00 | 0.00 | 0.00 | 45 | 1010.9 |
| 20260505055826 | 72 | 245 | 0.0 | 0.0 | 0.00 | 0.00 | 0.00 | 45 | 1010.8 |
| 20260505055728 | 72 | 245 | 0.0 | 0.0 | 0.00 | 0.00 | 0.00 | 45 | 1010.8 |
| 20260505055616 | 72 | 245 | 0.0 | 0.0 | 0.00 | 0.00 | 0.00 | 45 | 1010.8 |
| 20260505055517 | 72 | 245 | 0.0 | 0.0 | 0.00 | 0.00 | 0.00 | 45 | 1010.7 |
| 20260505055447 | 72 | 245 | 0.0 | 0.0 | 0.00 | 0.00 | 0.00 | 45 | 1010.7 |
| 20260505055328 | 72 | 245 | 0.0 | 0.0 | 0.00 | 0.00 | 0.00 | 45 | 1010.7 |
| 20260505055229 | 72 | 245 | 0.0 | 0.0 | 0.00 | 0.00 | 0.00 | 45 | 1010.7 |
| 20260505055132 | 72 | 245 | 0.0 | 0.0 | 0.00 | 0.00 | 0.00 | 45 | 1010.8 |
| 20260505055033 | 72 | 245 | 0.0 | 0.0 | 0.00 | 0.00 | 0.00 | 45 | 1010.7 |
| 20260505054916 | 72 | 245 | 0.0 | 0.0 | 0.00 | 0.00 | 0.00 | 45 | 1010.8 |
| 20260505054818 | 72 | 245 | 0.0 | 0.0 | 0.00 | 0.00 | 0.00 | 45 | 1010.8 |
| 20260505054727 | 72 | 245 | 0.0 | 0.0 | 0.00 | 0.00 | 0.00 | 45 | 1010.8 |
| 20260505054628 | 72 | 245 | 0.0 | 0.0 | 0.00 | 0.00 | 0.00 | 45 | 1010.9 |
| 20260505054543 | 72 | 245 | 0.0 | 0.0 | 0.00 | 0.00 | 0.00 | 45 | 1010.8 |
| 20260505054441 | 72 | 245 | 0.0 | 0.0 | 0.00 | 0.00 | 0.00 | 45 | 1010.8 |
| 20260505054329 | 72 | 245 | 0.0 | 0.0 | 0.00 | 0.00 | 0.00 | 45 | 1010.8 |
| 20260505054252 | 73 | 245 | 0.0 | 0.0 | 0.00 | 0.00 | 0.00 | 45 | 1010.8 |
| 20260505054221 | 72 | 245 | 0.0 | 0.0 | 0.00 | 0.00 | 0.00 | 44 | 1010.8 |
| 20260505053922 | 72 | 245 | 0.0 | 0.0 | 0.00 | 0.00 | 0.00 | 44 | 1010.9 |
| 20260505053824 | 73 | 245 | 0.0 | 0.0 | 0.00 | 0.00 | 0.00 | 44 | 1010.9 |
| 20260505053732 | 73 | 245 | 0.0 | 0.0 | 0.00 | 0.00 | 0.00 | 44 | 1010.8 |
| 20260505053640 | 73 | 245 | 0.0 | 0.0 | 0.00 | 0.00 | 0.00 | 44 | 1010.9 |
| 20260505053521 | 73 | 245 | 0.0 | 0.0 | 0.00 | 0.00 | 0.00 | 44 | 1010.9 |
| 20260505053442 | 73 | 245 | 0.0 | 0.0 | 0.00 | 0.00 | 0.00 | 44 | 1010.9 |
| 20260505053330 | 73 | 245 | 0.0 | 0.0 | 0.00 | 0.00 | 0.00 | 44 | 1010.8 |
| 20260505053231 | 73 | 245 | 0.0 | 0.0 | 0.00 | 0.00 | 0.00 | 44 | 1010.9 |
| 20260505053139 | 73 | 245 | 0.0 | 0.0 | 0.00 | 0.00 | 0.00 | 44 | 1010.9 |
| 20260505053024 | 73 | 245 | 0.0 | 0.0 | 0.00 | 0.00 | 0.00 | 44 | 1010.9 |
| 20260505052932 | 73 | 245 | 0.0 | 0.0 | 0.00 | 0.00 | 0.00 | 44 | 1011.0 |
| 20260505052835 | 73 | 245 | 0.0 | 0.0 | 0.00 | 0.00 | 0.00 | 44 | 1011.0 |
| 20260505052717 | 73 | 245 | 0.0 | 0.0 | 0.00 | 0.00 | 0.00 | 44 | 1011.1 |
| 20260505052618 | 73 | 245 | 0.0 | 0.0 | 0.00 | 0.00 | 0.00 | 44 | 1011.2 |
| 20260505052526 | 73 | 245 | 0.0 | 0.0 | 0.00 | 0.00 | 0.00 | 44 | 1011.2 |
| 20260505052453 | 73 | 245 | 0.0 | 0.0 | 0.00 | 0.00 | 0.00 | 44 | 1011.3 |
| 20260505052319 | 73 | 245 | 0.0 | 0.0 | 0.00 | 0.00 | 0.00 | 44 | 1011.3 |
| 20260505052221 | 73 | 245 | 0.0 | 0.0 | 0.00 | 0.00 | 0.00 | 44 | 1011.3 |
| 20260505052128 | 73 | 245 | 0.0 | 0.0 | 0.00 | 0.00 | 0.00 | 44 | 1011.2 |
| 20260505052050 | 73 | 245 | 0.0 | 0.0 | 0.00 | 0.00 | 0.00 | 44 | 1011.3 |
| 20260505051938 | 73 | 245 | 0.0 | 0.0 | 0.00 | 0.00 | 0.00 | 44 | 1011.3 |
| 20260505051846 | 73 | 245 | 0.0 | 0.0 | 0.00 | 0.00 | 0.00 | 44 | 1011.3 |
| 20260505051727 | 73 | 245 | 0.0 | 0.0 | 0.00 | 0.00 | 0.00 | 44 | 1011.3 |
| 20260505051633 | 73 | 245 | 0.0 | 0.0 | 0.00 | 0.00 | 0.00 | 44 | 1011.2 |
| 20260505051543 | 73 | 245 | 0.0 | 0.0 | 0.00 | 0.00 | 0.00 | 44 | 1011.2 |
| 20260505051444 | 73 | 245 | 0.0 | 0.0 | 0.00 | 0.00 | 0.00 | 44 | 1011.3 |
| 20260505051352 | 73 | 245 | 0.0 | 0.0 | 0.00 | 0.00 | 0.00 | 44 | 1011.3 |
| 20260505051231 | 73 | 245 | 0.0 | 0.0 | 0.00 | 0.00 | 0.00 | 44 | 1011.4 |
| 20260505051140 | 73 | 245 | 0.0 | 0.0 | 0.00 | 0.00 | 0.00 | 44 | 1011.4 |
| 20260505051020 | 73 | 245 | 0.0 | 0.0 | 0.00 | 0.00 | 0.00 | 44 | 1011.5 |
| 20260505050949 | 73 | 245 | 0.0 | 0.0 | 0.00 | 0.00 | 0.00 | 44 | 1011.4 |
| 20260505050834 | 73 | 245 | 0.0 | 0.0 | 0.00 | 0.00 | 0.00 | 44 | 1011.4 |
| 20260505050743 | 73 | 245 | 0.0 | 0.0 | 0.00 | 0.00 | 0.00 | 44 | 1011.6 |
| 20260505050643 | 73 | 245 | 0.0 | 0.0 | 0.00 | 0.00 | 0.00 | 44 | 1011.6 |
| 20260505050531 | 73 | 245 | 0.0 | 0.0 | 0.00 | 0.00 | 0.00 | 44 | 1011.6 |
| 20260505050453 | 72 | 245 | 0.0 | 0.0 | 0.00 | 0.00 | 0.00 | 44 | 1011.5 |
| 20260505050342 | 72 | 245 | 0.0 | 0.0 | 0.00 | 0.00 | 0.00 | 44 | 1011.5 |
| 20260505050223 | 72 | 245 | 0.0 | 0.0 | 0.00 | 0.00 | 0.00 | 45 | 1011.6 |
| 20260505050129 | 72 | 245 | 0.0 | 0.0 | 0.00 | 0.00 | 0.00 | 45 | 1011.6 |
| 20260505041730 | 73 | 245 | 0.0 | 2.0 | 0.00 | 0.00 | 0.00 | 42 | 1011.6 |
| 20260505041659 | 73 | 245 | 0.0 | 2.0 | 0.00 | 0.00 | 0.00 | 42 | 1011.5 |
| 20260505041524 | 73 | 245 | 0.0 | 2.0 | 0.00 | 0.00 | 0.00 | 42 | 1011.6 |
| 20260505041447 | 73 | 245 | 0.0 | 2.0 | 0.00 | 0.00 | 0.00 | 42 | 1011.5 |
| 20260505041335 | 73 | 245 | 0.0 | 2.0 | 0.00 | 0.00 | 0.00 | 42 | 1011.5 |
| 20260505041237 | 73 | 245 | 0.0 | 2.0 | 0.00 | 0.00 | 0.00 | 42 | 1011.4 |
| 20260505041124 | 73 | 245 | 0.0 | 2.0 | 0.00 | 0.00 | 0.00 | 42 | 1011.4 |
| 20260505041026 | 73 | 245 | 0.0 | 2.0 | 0.00 | 0.00 | 0.00 | 42 | 1011.4 |
| 20260505040934 | 73 | 245 | 0.0 | 0.0 | 0.00 | 0.00 | 0.00 | 42 | 1011.4 |
| 20260505040818 | 73 | 245 | 0.0 | 0.0 | 0.00 | 0.00 | 0.00 | 42 | 1011.4 |
| 20260505040721 | 73 | 245 | 0.0 | 0.0 | 0.00 | 0.00 | 0.00 | 41 | 1011.3 |
| 20260505040630 | 73 | 245 | 0.0 | 0.0 | 0.00 | 0.00 | 0.00 | 41 | 1011.3 |
| 20260505040551 | 73 | 245 | 0.0 | 0.0 | 0.00 | 0.00 | 0.00 | 41 | 1011.4 |
| 20260505040439 | 73 | 245 | 0.0 | 0.0 | 0.00 | 0.00 | 0.00 | 41 | 1011.4 |
| 20260505040320 | 73 | 245 | 0.0 | 0.0 | 0.00 | 0.00 | 0.00 | 41 | 1011.3 |
| 20260505040222 | 73 | 245 | 0.0 | 0.0 | 0.00 | 0.00 | 0.00 | 41 | 1011.2 |
| 20260505040127 | 73 | 245 | 0.0 | 0.0 | 0.00 | 0.00 | 0.00 | 40 | 1011.4 |
| 20260505040028 | 73 | 245 | 0.0 | 0.0 | 0.00 | 0.00 | 0.00 | 40 | 1011.4 |
| 20260505035917 | 73 | 245 | 0.0 | 0.0 | 0.00 | 0.00 | 0.00 | 40 | 1011.3 |
| 20260505035820 | 73 | 245 | 0.0 | 0.0 | 0.00 | 0.00 | 0.00 | 40 | 1011.3 |
| 20260505035729 | 73 | 245 | 0.0 | 0.0 | 0.00 | 0.00 | 0.00 | 40 | 1011.4 |
| 20260505035631 | 73 | 245 | 0.0 | 0.0 | 0.00 | 0.00 | 0.00 | 40 | 1011.4 |
| 20260505035517 | 73 | 245 | 0.0 | 0.0 | 0.00 | 0.00 | 0.00 | 40 | 1011.4 |
| 20260505035446 | 73 | 245 | 0.0 | 0.0 | 0.00 | 0.00 | 0.00 | 40 | 1011.3 |
| 20260505035326 | 73 | 245 | 0.0 | 0.0 | 0.00 | 0.00 | 0.00 | 40 | 1011.3 |
| 20260505035228 | 73 | 245 | 0.0 | 0.0 | 0.00 | 0.00 | 0.00 | 40 | 1011.4 |
| 20260505035137 | 73 | 245 | 0.0 | 0.0 | 0.00 | 0.00 | 0.00 | 40 | 1011.3 |
| 20260505035018 | 73 | 245 | 0.0 | 0.0 | 0.00 | 0.00 | 0.00 | 40 | 1011.4 |
| 20260505034923 | 74 | 245 | 0.0 | 0.0 | 0.00 | 0.00 | 0.00 | 40 | 1011.4 |
| 20260505034832 | 74 | 245 | 0.0 | 0.0 | 0.00 | 0.00 | 0.00 | 39 | 1011.5 |
| 20260505034735 | 74 | 245 | 0.0 | 0.0 | 0.00 | 0.00 | 0.00 | 39 | 1011.5 |
| 20260505034617 | 74 | 245 | 0.0 | 0.0 | 0.00 | 0.00 | 0.00 | 40 | 1011.6 |
| 20260505034520 | 74 | 245 | 0.0 | 0.0 | 0.00 | 0.00 | 0.00 | 40 | 1011.6 |
| 20260505034429 | 74 | 245 | 0.0 | 0.0 | 0.00 | 0.00 | 0.00 | 40 | 1011.6 |
| 20260505034315 | 74 | 245 | 0.0 | 0.0 | 0.00 | 0.00 | 0.00 | 40 | 1011.5 |
| 20260505034244 | 74 | 245 | 0.0 | 0.0 | 0.00 | 0.00 | 0.00 | 40 | 1011.4 |
| 20260505034126 | 74 | 245 | 0.0 | 0.0 | 0.00 | 0.00 | 0.00 | 40 | 1011.4 |
| 20260505034029 | 74 | 245 | 0.0 | 0.0 | 0.00 | 0.00 | 0.00 | 39 | 1011.5 |
| 20260505033938 | 74 | 245 | 0.0 | 0.0 | 0.00 | 0.00 | 0.00 | 39 | 1011.4 |
| 20260505033818 | 74 | 245 | 0.0 | 0.0 | 0.00 | 0.00 | 0.00 | 39 | 1011.4 |
| 20260505033720 | 74 | 245 | 0.0 | 0.0 | 0.00 | 0.00 | 0.00 | 39 | 1011.4 |
| 20260505033633 | 74 | 245 | 0.0 | 0.0 | 0.00 | 0.00 | 0.00 | 39 | 1011.3 |
| 20260505033534 | 74 | 245 | 0.0 | 0.0 | 0.00 | 0.00 | 0.00 | 39 | 1011.2 |
| 20260505033443 | 74 | 245 | 0.0 | 0.0 | 0.00 | 0.00 | 0.00 | 39 | 1011.2 |
| 20260505033344 | 74 | 245 | 0.0 | 0.0 | 0.00 | 0.00 | 0.00 | 39 | 1011.2 |
| 20260505033231 | 74 | 245 | 0.0 | 0.0 | 0.00 | 0.00 | 0.00 | 39 | 1011.2 |
| 20260505033154 | 74 | 245 | 0.0 | 0.0 | 0.00 | 0.00 | 0.00 | 39 | 1011.1 |
| 20260505033042 | 74 | 245 | 0.0 | 0.0 | 0.00 | 0.00 | 0.00 | 39 | 1011.1 |
| 20260505032947 | 74 | 245 | 0.0 | 0.0 | 0.00 | 0.00 | 0.00 | 39 | 1011.0 |
| 20260505032854 | 74 | 245 | 0.0 | 0.0 | 0.00 | 0.00 | 0.00 | 39 | 1011.0 |
| 20260505032735 | 74 | 245 | 0.0 | 0.0 | 0.00 | 0.00 | 0.00 | 39 | 1010.9 |
| 20260505032616 | 74 | 245 | 0.0 | 0.0 | 0.00 | 0.00 | 0.00 | 39 | 1011.0 |
| 20260505032518 | 74 | 245 | 0.0 | 0.0 | 0.00 | 0.00 | 0.00 | 39 | 1010.9 |
| 20260505032427 | 74 | 245 | 0.0 | 0.0 | 0.00 | 0.00 | 0.00 | 39 | 1010.8 |
| 20260505032329 | 74 | 245 | 0.0 | 2.0 | 0.00 | 0.00 | 0.00 | 39 | 1010.9 |
| 20260505032235 | 74 | 245 | 0.0 | 2.0 | 0.00 | 0.00 | 0.00 | 39 | 1010.8 |
| 20260505032116 | 74 | 245 | 0.0 | 2.0 | 0.00 | 0.00 | 0.00 | 39 | 1010.9 |
| 20260505032047 | 74 | 245 | 0.0 | 2.0 | 0.00 | 0.00 | 0.00 | 38 | 1011.0 |
| 20260505031935 | 74 | 245 | 0.0 | 2.0 | 0.00 | 0.00 | 0.00 | 39 | 1011.0 |
| 20260505031816 | 74 | 245 | 0.0 | 2.0 | 0.00 | 0.00 | 0.00 | 39 | 1010.9 |
| 20260505031718 | 74 | 245 | 0.0 | 2.0 | 0.00 | 0.00 | 0.00 | 39 | 1011.0 |
| 20260505031631 | 74 | 245 | 0.0 | 2.0 | 0.00 | 0.00 | 0.00 | 39 | 1010.8 |
| 20260505031533 | 74 | 245 | 0.0 | 2.0 | 0.00 | 0.00 | 0.00 | 39 | 1010.8 |
| 20260505031415 | 74 | 245 | 0.0 | 1.0 | 0.00 | 0.00 | 0.00 | 39 | 1010.8 |
| 20260505031318 | 74 | 245 | 0.0 | 0.0 | 0.00 | 0.00 | 0.00 | 39 | 1010.8 |
| 20260505031227 | 74 | 245 | 0.0 | 0.0 | 0.00 | 0.00 | 0.00 | 39 | 1010.8 |
| 20260505031129 | 74 | 245 | 0.0 | 0.0 | 0.00 | 0.00 | 0.00 | 39 | 1010.7 |
| 20260505031015 | 74 | 245 | 0.0 | 0.0 | 0.00 | 0.00 | 0.00 | 39 | 1010.7 |
| 20260505030919 | 74 | 245 | 0.0 | 0.0 | 0.00 | 0.00 | 0.00 | 39 | 1010.6 |
| 20260505030826 | 74 | 245 | 0.0 | 0.0 | 0.00 | 0.00 | 0.00 | 39 | 1010.6 |
| 20260505030755 | 74 | 245 | 0.0 | 0.0 | 0.00 | 0.00 | 0.00 | 39 | 1010.6 |
| 20260505030636 | 74 | 245 | 0.0 | 0.0 | 0.00 | 0.00 | 0.00 | 39 | 1010.6 |
| 20260505030517 | 74 | 245 | 0.0 | 0.0 | 0.00 | 0.00 | 0.00 | 39 | 1010.7 |
| 20260505030418 | 74 | 245 | 0.0 | 0.0 | 0.00 | 0.00 | 0.00 | 39 | 1010.6 |
| 20260505030332 | 74 | 245 | 0.0 | 0.0 | 0.00 | 0.00 | 0.00 | 39 | 1010.7 |
| 20260505030234 | 74 | 245 | 0.0 | 0.0 | 0.00 | 0.00 | 0.00 | 39 | 1010.6 |
| 20260505030116 | 74 | 245 | 0.0 | 0.0 | 0.00 | 0.00 | 0.00 | 39 | 1010.6 |
| 20260505030035 | 74 | 245 | 0.0 | 0.0 | 0.00 | 0.00 | 0.00 | 39 | 1010.6 |
| 20260505025934 | 74 | 245 | 0.0 | 0.0 | 0.00 | 0.00 | 0.00 | 40 | 1010.6 |
| 20260505025816 | 74 | 245 | 0.0 | 0.0 | 0.00 | 0.00 | 0.00 | 40 | 1010.5 |
| 20260505025719 | 74 | 245 | 0.0 | 0.0 | 0.00 | 0.00 | 0.00 | 40 | 1010.5 |
| 20260505025649 | 74 | 245 | 0.0 | 0.0 | 0.00 | 0.00 | 0.00 | 40 | 1010.5 |
| 20260505025530 | 74 | 245 | 0.0 | 0.0 | 0.00 | 0.00 | 0.00 | 40 | 1010.6 |
| 20260505025417 | 74 | 245 | 0.0 | 0.0 | 0.00 | 0.00 | 0.00 | 40 | 1010.5 |
| 20260505025340 | 74 | 245 | 0.0 | 0.0 | 0.00 | 0.00 | 0.00 | 40 | 1010.5 |
| 20260505025247 | 74 | 245 | 0.0 | 0.0 | 0.00 | 0.00 | 0.00 | 40 | 1010.5 |
| 20260505025136 | 74 | 245 | 0.0 | 0.0 | 0.00 | 0.00 | 0.00 | 40 | 1010.5 |
| 20260505025036 | 74 | 245 | 0.0 | 0.0 | 0.00 | 0.00 | 0.00 | 40 | 1010.4 |
| 20260505024942 | 74 | 245 | 0.0 | 0.0 | 0.00 | 0.00 | 0.00 | 40 | 1010.4 |
| 20260505024830 | 74 | 245 | 0.0 | 0.0 | 0.00 | 0.00 | 0.00 | 40 | 1010.4 |
| 20260505024733 | 74 | 245 | 0.0 | 0.0 | 0.00 | 0.00 | 0.00 | 40 | 1010.4 |
| 20260505024641 | 74 | 245 | 0.0 | 0.0 | 0.00 | 0.00 | 0.00 | 40 | 1010.4 |
| 20260505024543 | 74 | 245 | 0.0 | 0.0 | 0.00 | 0.00 | 0.00 | 40 | 1010.5 |
| 20260505024425 | 74 | 245 | 0.0 | 0.0 | 0.00 | 0.00 | 0.00 | 40 | 1010.5 |
| 20260505024334 | 74 | 245 | 0.0 | 0.0 | 0.00 | 0.00 | 0.00 | 40 | 1010.6 |
| 20260505024239 | 74 | 245 | 0.0 | 2.0 | 0.00 | 0.00 | 0.00 | 40 | 1010.5 |
| 20260505024120 | 74 | 245 | 0.0 | 2.0 | 0.00 | 0.00 | 0.00 | 40 | 1010.5 |
| 20260505024049 | 74 | 245 | 0.0 | 2.0 | 0.00 | 0.00 | 0.00 | 40 | 1010.5 |
| 20260505023916 | 74 | 245 | 0.0 | 3.0 | 0.00 | 0.00 | 0.00 | 40 | 1010.5 |
| 20260505023817 | 74 | 245 | 0.0 | 3.0 | 0.00 | 0.00 | 0.00 | 40 | 1010.5 |
| 20260505023745 | 74 | 245 | 0.0 | 3.0 | 0.00 | 0.00 | 0.00 | 40 | 1010.5 |
| 20260505023625 | 74 | 245 | 0.0 | 3.0 | 0.00 | 0.00 | 0.00 | 40 | 1010.5 |
| 20260505023527 | 74 | 245 | 0.0 | 3.0 | 0.00 | 0.00 | 0.00 | 40 | 1010.5 |
| 20260505023439 | 74 | 245 | 0.0 | 5.0 | 0.00 | 0.00 | 0.00 | 40 | 1010.6 |
| 20260505023320 | 74 | 245 | 0.0 | 6.0 | 0.00 | 0.00 | 0.00 | 40 | 1010.6 |
| 20260505023222 | 75 | 245 | 0.0 | 6.0 | 0.00 | 0.00 | 0.00 | 40 | 1010.7 |
| 20260505023124 | 75 | 245 | 0.0 | 6.0 | 0.00 | 0.00 | 0.00 | 40 | 1010.7 |
| 20260505023032 | 75 | 245 | 0.0 | 6.0 | 0.00 | 0.00 | 0.00 | 40 | 1010.7 |
| 20260505022934 | 75 | 241 | 0.0 | 6.0 | 0.00 | 0.00 | 0.00 | 41 | 1010.7 |
| 20260505022819 | 75 | 238 | 0.0 | 6.0 | 0.00 | 0.00 | 0.00 | 41 | 1010.7 |
| 20260505022728 | 75 | 238 | 1.0 | 6.0 | 0.00 | 0.00 | 0.00 | 41 | 1010.7 |
| 20260505022631 | 75 | 240 | 2.0 | 6.0 | 0.00 | 0.00 | 0.00 | 41 | 1010.6 |
| 20260505022532 | 75 | 239 | 1.0 | 6.0 | 0.00 | 0.00 | 0.00 | 41 | 1010.5 |
| 20260505022441 | 75 | 234 | 1.0 | 6.0 | 0.00 | 0.00 | 0.00 | 42 | 1010.5 |
| 20260505022323 | 75 | 232 | 1.0 | 6.0 | 0.00 | 0.00 | 0.00 | 43 | 1010.6 |
| 20260505022229 | 75 | 222 | 2.0 | 6.0 | 0.00 | 0.00 | 0.00 | 43 | 1010.5 |
| 20260505022138 | 75 | 218 | 2.0 | 6.0 | 0.00 | 0.00 | 0.00 | 43 | 1010.5 |
| 20260505022019 | 75 | 217 | 1.0 | 5.0 | 0.00 | 0.00 | 0.00 | 43 | 1010.5 |
| 20260505021922 | 75 | 223 | 1.0 | 5.0 | 0.00 | 0.00 | 0.00 | 43 | 1010.6 |
| 20260505021829 | 75 | 223 | 1.0 | 5.0 | 0.00 | 0.00 | 0.00 | 43 | 1010.5 |
| 20260505021730 | 75 | 255 | 1.0 | 5.0 | 0.00 | 0.00 | 0.00 | 43 | 1010.5 |
| 20260505021639 | 75 | 243 | 1.0 | 5.0 | 0.00 | 0.00 | 0.00 | 43 | 1010.5 |
| 20260505021544 | 75 | 245 | 0.0 | 5.0 | 0.00 | 0.00 | 0.00 | 43 | 1010.4 |
| 20260505021425 | 75 | 244 | 1.0 | 6.0 | 0.00 | 0.00 | 0.00 | 43 | 1010.4 |
| 20260505021333 | 75 | 244 | 1.0 | 6.0 | 0.00 | 0.00 | 0.00 | 43 | 1010.4 |
| 20260505021243 | 75 | 240 | 1.0 | 8.0 | 0.00 | 0.00 | 0.00 | 43 | 1010.4 |
| 20260505021124 | 75 | 240 | 0.0 | 8.0 | 0.00 | 0.00 | 0.00 | 43 | 1010.5 |
| 20260505021024 | 75 | 240 | 0.0 | 8.0 | 0.00 | 0.00 | 0.00 | 43 | 1010.6 |
| 20260505020930 | 75 | 240 | 0.0 | 8.0 | 0.00 | 0.00 | 0.00 | 43 | 1010.6 |
| 20260505020839 | 75 | 240 | 2.0 | 8.0 | 0.00 | 0.00 | 0.00 | 43 | 1010.5 |
| 20260505020741 | 75 | 238 | 3.0 | 8.0 | 0.00 | 0.00 | 0.00 | 43 | 1010.5 |
| 20260505020622 | 75 | 240 | 3.0 | 8.0 | 0.00 | 0.00 | 0.00 | 43 | 1010.3 |
| 20260505020529 | 75 | 233 | 2.0 | 8.0 | 0.00 | 0.00 | 0.00 | 43 | 1010.3 |
| 20260505020430 | 75 | 225 | 2.0 | 8.0 | 0.00 | 0.00 | 0.00 | 43 | 1010.4 |
| 20260505020340 | 75 | 231 | 2.0 | 5.0 | 0.00 | 0.00 | 0.00 | 43 | 1010.4 |
| 20260505020225 | 75 | 223 | 2.0 | 5.0 | 0.00 | 0.00 | 0.00 | 43 | 1010.4 |
| 20260505020124 | 75 | 244 | 2.0 | 5.0 | 0.00 | 0.00 | 0.00 | 43 | 1010.5 |
| 20260505020047 | 75 | 238 | 2.0 | 5.0 | 0.00 | 0.00 | 0.00 | 43 | 1010.5 |
| 20260505015937 | 75 | 242 | 0.0 | 6.0 | 0.00 | 0.00 | 0.00 | 43 | 1010.5 |
| 20260505015818 | 75 | 242 | 0.0 | 6.0 | 0.00 | 0.00 | 0.00 | 43 | 1010.5 |
| 20260505015728 | 75 | 243 | 0.0 | 6.0 | 0.00 | 0.00 | 0.00 | 43 | 1010.5 |
| 20260505015634 | 75 | 243 | 1.0 | 6.0 | 0.00 | 0.00 | 0.00 | 43 | 1010.5 |
| 20260505015542 | 75 | 242 | 1.0 | 6.0 | 0.00 | 0.00 | 0.00 | 43 | 1010.5 |
| 20260505015423 | 75 | 240 | 1.0 | 6.0 | 0.00 | 0.00 | 0.00 | 43 | 1010.5 |
| 20260505015325 | 75 | 234 | 1.0 | 6.0 | 0.00 | 0.00 | 0.00 | 43 | 1010.5 |
| 20260505015227 | 75 | 233 | 2.0 | 6.0 | 0.00 | 0.00 | 0.00 | 43 | 1010.5 |
| 20260505015137 | 75 | 228 | 2.0 | 6.0 | 0.00 | 0.00 | 0.00 | 43 | 1010.5 |
| 20260505015022 | 75 | 251 | 1.0 | 6.0 | 0.00 | 0.00 | 0.00 | 43 | 1010.6 |
| 20260505014952 | 75 | 250 | 2.0 | 6.0 | 0.00 | 0.00 | 0.00 | 43 | 1010.5 |
| 20260505014833 | 75 | 252 | 1.0 | 6.0 | 0.00 | 0.00 | 0.00 | 43 | 1010.5 |
| 20260505014734 | 75 | 261 | 1.0 | 6.0 | 0.00 | 0.00 | 0.00 | 43 | 1010.6 |
| 20260505014617 | 75 | 274 | 2.0 | 6.0 | 0.00 | 0.00 | 0.00 | 43 | 1010.6 |
| 20260505014525 | 75 | 229 | 1.0 | 7.0 | 0.00 | 0.00 | 0.00 | 43 | 1010.5 |
| 20260505014427 | 75 | 288 | 0.0 | 7.0 | 0.00 | 0.00 | 0.00 | 43 | 1010.5 |
| 20260505014401 | 75 | 252 | 0.0 | 8.0 | 0.00 | 0.00 | 0.00 | 43 | 1010.5 |
| 20260505014221 | 75 | 251 | 0.0 | 8.0 | 0.00 | 0.00 | 0.00 | 43 | 1010.5 |
| 20260505014123 | 75 | 251 | 0.0 | 8.0 | 0.00 | 0.00 | 0.00 | 43 | 1010.5 |
| 20260505014031 | 75 | 252 | 1.0 | 8.0 | 0.00 | 0.00 | 0.00 | 43 | 1010.4 |
| 20260505013932 | 75 | 252 | 2.0 | 8.0 | 0.00 | 0.00 | 0.00 | 43 | 1010.4 |
| 20260505013833 | 75 | 240 | 2.0 | 8.0 | 0.00 | 0.00 | 0.00 | 43 | 1010.4 |
| 20260505013720 | 75 | 242 | 3.0 | 8.0 | 0.00 | 0.00 | 0.00 | 43 | 1010.5 |
| 20260505013629 | 75 | 224 | 3.0 | 8.0 | 0.00 | 0.00 | 0.00 | 43 | 1010.5 |
| 20260505013531 | 75 | 245 | 1.0 | 7.0 | 0.00 | 0.00 | 0.00 | 43 | 1010.4 |
| 20260505013433 | 75 | 257 | 0.0 | 7.0 | 0.00 | 0.00 | 0.00 | 43 | 1010.4 |
| 20260505013316 | 75 | 258 | 1.0 | 7.0 | 0.00 | 0.00 | 0.00 | 43 | 1010.4 |
| 20260505013224 | 76 | 258 | 1.0 | 7.0 | 0.00 | 0.00 | 0.00 | 43 | 1010.5 |
| 20260505013132 | 76 | 258 | 1.0 | 7.0 | 0.00 | 0.00 | 0.00 | 43 | 1010.4 |
| 20260505013018 | 76 | 255 | 2.0 | 7.0 | 0.00 | 0.00 | 0.00 | 43 | 1010.5 |
| 20260505012921 | 76 | 253 | 2.0 | 7.0 | 0.00 | 0.00 | 0.00 | 43 | 1010.5 |
| 20260505012850 | 76 | 263 | 2.0 | 6.0 | 0.00 | 0.00 | 0.00 | 43 | 1010.4 |
| 20260505012730 | 76 | 256 | 1.0 | 6.0 | 0.00 | 0.00 | 0.00 | 43 | 1010.4 |
| 20260505012633 | 76 | 263 | 1.0 | 6.0 | 0.00 | 0.00 | 0.00 | 43 | 1010.4 |
| 20260505012520 | 76 | 266 | 2.0 | 6.0 | 0.00 | 0.00 | 0.00 | 42 | 1010.4 |
| 20260505012442 | 76 | 276 | 2.0 | 6.0 | 0.00 | 0.00 | 0.00 | 43 | 1010.5 |
| 20260505012334 | 76 | 269 | 2.0 | 6.0 | 0.00 | 0.00 | 0.00 | 43 | 1010.4 |
| 20260505012216 | 76 | 228 | 2.0 | 6.0 | 0.00 | 0.00 | 0.00 | 43 | 1010.4 |
| 20260505012118 | 76 | 255 | 1.0 | 6.0 | 0.00 | 0.00 | 0.00 | 43 | 1010.5 |
| 20260505012028 | 76 | 261 | 1.0 | 6.0 | 0.00 | 0.00 | 0.00 | 43 | 1010.4 |
| 20260505011930 | 76 | 261 | 1.0 | 6.0 | 0.00 | 0.00 | 0.00 | 43 | 1010.4 |
| 20260505011816 | 76 | 269 | 1.0 | 6.0 | 0.00 | 0.00 | 0.00 | 43 | 1010.4 |
| 20260505011745 | 76 | 283 | 1.0 | 6.0 | 0.00 | 0.00 | 0.00 | 43 | 1010.4 |
| 20260505011624 | 76 | 283 | 2.0 | 6.0 | 0.00 | 0.00 | 0.00 | 42 | 1010.4 |
| 20260505011534 | 76 | 280 | 2.0 | 6.0 | 0.00 | 0.00 | 0.00 | 42 | 1010.5 |
| 20260505011434 | 76 | 278 | 2.0 | 6.0 | 0.00 | 0.00 | 0.00 | 42 | 1010.5 |
| 20260505011320 | 76 | 255 | 1.0 | 6.0 | 0.00 | 0.00 | 0.00 | 42 | 1010.4 |
| 20260505011223 | 76 | 252 | 2.0 | 6.0 | 0.00 | 0.00 | 0.00 | 42 | 1010.4 |
| 20260505011124 | 76 | 252 | 2.0 | 6.0 | 0.00 | 0.00 | 0.00 | 42 | 1010.4 |
| 20260505011037 | 76 | 255 | 1.0 | 6.0 | 0.00 | 0.00 | 0.00 | 42 | 1010.5 |
| 20260505010946 | 76 | 219 | 0.0 | 6.0 | 0.00 | 0.00 | 0.00 | 42 | 1010.4 |
| 20260505010826 | 76 | 215 | 1.0 | 6.0 | 0.00 | 0.00 | 0.00 | 42 | 1010.4 |
| 20260505010728 | 76 | 215 | 1.0 | 6.0 | 0.00 | 0.00 | 0.00 | 42 | 1010.4 |
| 20260505010637 | 76 | 214 | 2.0 | 6.0 | 0.00 | 0.00 | 0.00 | 42 | 1010.4 |
| 20260505010516 | 76 | 214 | 1.0 | 6.0 | 0.00 | 0.00 | 0.00 | 42 | 1010.5 |
| 20260505010423 | 76 | 257 | 0.0 | 2.0 | 0.00 | 0.00 | 0.00 | 42 | 1010.4 |
| 20260505010325 | 76 | 281 | 0.0 | 0.0 | 0.00 | 0.00 | 0.00 | 43 | 1010.5 |
| 20260505010231 | 76 | 259 | 0.0 | 0.0 | 0.00 | 0.00 | 0.00 | 44 | 1010.5 |
| 20260505010142 | 76 | 259 | 0.0 | 0.0 | 0.00 | 0.00 | 0.00 | 42 | 1010.5 |
| 20260505010035 | 76 | 259 | 0.0 | 0.0 | 0.00 | 0.00 | 0.00 | 42 | 1010.5 |
| 20260505005925 | 76 | 259 | 0.0 | 0.0 | 0.00 | 0.00 | 0.00 | 42 | 1010.6 |
| 20260505005834 | 76 | 259 | 0.0 | 1.0 | 0.00 | 0.00 | 0.00 | 42 | 1010.6 |
| 20260505005720 | 76 | 259 | 0.0 | 1.0 | 0.00 | 0.00 | 0.00 | 42 | 1010.6 |
| 20260505005621 | 76 | 259 | 0.0 | 1.0 | 0.00 | 0.00 | 0.00 | 42 | 1010.6 |
| 20260505005523 | 76 | 259 | 0.0 | 1.0 | 0.00 | 0.00 | 0.00 | 42 | 1010.5 |
| 20260505005430 | 76 | 259 | 0.0 | 3.0 | 0.00 | 0.00 | 0.00 | 42 | 1010.5 |
| 20260505005331 | 76 | 259 | 0.0 | 5.0 | 0.00 | 0.00 | 0.00 | 41 | 1010.5 |
| 20260505005240 | 76 | 259 | 0.0 | 5.0 | 0.00 | 0.00 | 0.00 | 41 | 1010.5 |
| 20260505005121 | 76 | 259 | 0.0 | 5.0 | 0.00 | 0.00 | 0.00 | 41 | 1010.4 |
| 20260505005034 | 76 | 259 | 0.0 | 5.0 | 0.00 | 0.00 | 0.00 | 41 | 1010.3 |
| 20260505004916 | 77 | 259 | 0.0 | 5.0 | 0.00 | 0.00 | 0.00 | 41 | 1010.4 |
| 20260505004819 | 77 | 259 | 0.0 | 5.0 | 0.00 | 0.00 | 0.00 | 41 | 1010.3 |
| 20260505004727 | 77 | 208 | 1.0 | 5.0 | 0.00 | 0.00 | 0.00 | 42 | 1010.4 |
| 20260505004629 | 77 | 208 | 2.0 | 5.0 | 0.00 | 0.00 | 0.00 | 41 | 1010.5 |
| 20260505004557 | 77 | 208 | 2.0 | 5.0 | 0.00 | 0.00 | 0.00 | 42 | 1010.4 |
| 20260505004418 | 77 | 179 | 1.0 | 3.0 | 0.00 | 0.00 | 0.00 | 42 | 1010.5 |
| 20260505004324 | 77 | 179 | 0.0 | 3.0 | 0.00 | 0.00 | 0.00 | 41 | 1010.5 |
| 20260505004231 | 77 | 178 | 0.0 | 3.0 | 0.00 | 0.00 | 0.00 | 41 | 1010.5 |
| 20260505004134 | 77 | 177 | 0.0 | 4.0 | 0.00 | 0.00 | 0.00 | 41 | 1010.6 |
| 20260505004017 | 77 | 176 | 0.0 | 4.0 | 0.00 | 0.00 | 0.00 | 41 | 1010.5 |
| 20260505003918 | 77 | 176 | 0.0 | 7.0 | 0.00 | 0.00 | 0.00 | 41 | 1010.5 |
| 20260505003828 | 77 | 176 | 0.0 | 7.0 | 0.00 | 0.00 | 0.00 | 41 | 1010.4 |
| 20260505003735 | 77 | 176 | 0.0 | 7.0 | 0.00 | 0.00 | 0.00 | 41 | 1010.5 |
| 20260505003616 | 77 | 176 | 0.0 | 7.0 | 0.00 | 0.00 | 0.00 | 41 | 1010.5 |
| 20260505003525 | 77 | 167 | 0.0 | 7.0 | 0.00 | 0.00 | 0.00 | 41 | 1010.5 |
| 20260505003426 | 77 | 145 | 1.0 | 7.0 | 0.00 | 0.00 | 0.00 | 40 | 1010.6 |
| 20260505003335 | 77 | 242 | 1.0 | 7.0 | 0.00 | 0.00 | 0.00 | 40 | 1010.6 |
| 20260505003217 | 77 | 245 | 2.0 | 7.0 | 0.00 | 0.00 | 0.00 | 40 | 1010.7 |
| 20260505003123 | 77 | 243 | 1.0 | 7.0 | 0.00 | 0.00 | 0.00 | 40 | 1010.7 |
| 20260505003027 | 77 | 285 | 1.0 | 5.0 | 0.00 | 0.00 | 0.00 | 40 | 1010.7 |
| 20260505002937 | 77 | 285 | 2.0 | 5.0 | 0.00 | 0.00 | 0.00 | 40 | 1010.6 |
| 20260505002818 | 77 | 276 | 1.0 | 7.0 | 0.00 | 0.00 | 0.00 | 40 | 1010.6 |
| 20260505002719 | 77 | 273 | 0.0 | 7.0 | 0.00 | 0.00 | 0.00 | 41 | 1010.6 |
| 20260505002628 | 77 | 195 | 1.0 | 7.0 | 0.00 | 0.00 | 0.00 | 41 | 1010.5 |
| 20260505002530 | 77 | 195 | 1.0 | 7.0 | 0.00 | 0.00 | 0.00 | 41 | 1010.7 |
| 20260505002416 | 77 | 194 | 1.0 | 7.0 | 0.00 | 0.00 | 0.00 | 41 | 1010.7 |
| 20260505002318 | 77 | 194 | 1.0 | 7.0 | 0.00 | 0.00 | 0.00 | 40 | 1010.6 |
| 20260505002226 | 77 | 239 | 2.0 | 7.0 | 0.00 | 0.00 | 0.00 | 40 | 1010.7 |
| 20260505002128 | 77 | 241 | 1.0 | 7.0 | 0.00 | 0.00 | 0.00 | 40 | 1010.8 |
| 20260505002037 | 77 | 243 | 1.0 | 7.0 | 0.00 | 0.00 | 0.00 | 40 | 1010.8 |
| 20260505001919 | 77 | 229 | 2.0 | 5.0 | 0.00 | 0.00 | 0.00 | 40 | 1010.8 |
| 20260505001825 | 77 | 236 | 2.0 | 6.0 | 0.00 | 0.00 | 0.00 | 40 | 1010.7 |
| 20260505001754 | 77 | 221 | 2.0 | 6.0 | 0.00 | 0.00 | 0.00 | 40 | 1010.7 |
| 20260505001635 | 77 | 193 | 2.0 | 7.0 | 0.00 | 0.00 | 0.00 | 40 | 1010.7 |
| 20260505001516 | 77 | 193 | 2.0 | 7.0 | 0.00 | 0.00 | 0.00 | 40 | 1010.7 |
| 20260505001425 | 77 | 250 | 2.0 | 7.0 | 0.00 | 0.00 | 0.00 | 40 | 1010.8 |
| 20260505001328 | 77 | 253 | 1.0 | 7.0 | 0.00 | 0.00 | 0.00 | 40 | 1010.8 |
| 20260505001235 | 77 | 250 | 1.0 | 7.0 | 0.00 | 0.00 | 0.00 | 40 | 1010.7 |
| 20260505001118 | 77 | 250 | 2.0 | 7.0 | 0.00 | 0.00 | 0.00 | 40 | 1010.7 |
| 20260505001027 | 77 | 246 | 3.0 | 7.0 | 0.00 | 0.00 | 0.00 | 40 | 1010.7 |
| 20260505000929 | 77 | 221 | 2.0 | 7.0 | 0.00 | 0.00 | 0.00 | 40 | 1010.7 |
| 20260505000839 | 77 | 236 | 2.0 | 7.0 | 0.00 | 0.00 | 0.00 | 40 | 1010.6 |
| 20260505000720 | 77 | 251 | 1.0 | 7.0 | 0.00 | 0.00 | 0.00 | 40 | 1010.7 |
| 20260505000624 | 77 | 250 | 1.0 | 7.0 | 0.00 | 0.00 | 0.00 | 40 | 1010.6 |
| 20260505000554 | 77 | 250 | 1.0 | 8.0 | 0.00 | 0.00 | 0.00 | 40 | 1010.7 |
| 20260505000434 | 77 | 250 | 3.0 | 8.0 | 0.00 | 0.00 | 0.00 | 40 | 1010.7 |
| 20260505000316 | 77 | 248 | 3.0 | 9.0 | 0.00 | 0.00 | 0.00 | 40 | 1010.7 |
| 20260505000244 | 77 | 245 | 1.0 | 9.0 | 0.00 | 0.00 | 0.00 | 40 | 1010.7 |
| 20260505000125 | 77 | 296 | 0.0 | 9.0 | 0.00 | 0.00 | 0.00 | 40 | 1010.7 |
| 20260505000047 | 77 | 224 | 1.0 | 9.0 | 0.00 | 0.00 | 0.00 | 40 | 1010.7 |
| 20260504235941 | 77 | 234 | 2.0 | 9.0 | 0.00 | 0.00 | 0.00 | 39 | 1010.6 |
| 20260504235821 | 77 | 236 | 3.0 | 9.0 | 0.00 | 0.00 | 0.00 | 39 | 1010.6 |
| 20260504235731 | 77 | 208 | 3.0 | 9.0 | 0.00 | 0.00 | 0.00 | 39 | 1010.6 |
| 20260504235632 | 77 | 233 | 4.0 | 9.0 | 0.00 | 0.00 | 0.00 | 39 | 1010.7 |
| 20260504235540 | 77 | 222 | 4.0 | 9.0 | 0.00 | 0.00 | 0.00 | 39 | 1010.6 |
| 20260504235420 | 77 | 241 | 3.0 | 8.0 | 0.00 | 0.00 | 0.00 | 39 | 1010.7 |
| 20260504235325 | 77 | 267 | 3.0 | 8.0 | 0.00 | 0.00 | 0.00 | 39 | 1010.7 |
| 20260504235227 | 77 | 236 | 2.0 | 8.0 | 0.00 | 0.00 | 0.00 | 38 | 1010.7 |
| 20260504235135 | 77 | 225 | 2.0 | 8.0 | 0.00 | 0.00 | 0.00 | 38 | 1010.7 |
| 20260504235017 | 77 | 238 | 2.0 | 8.0 | 0.00 | 0.00 | 0.00 | 38 | 1010.8 |
| 20260504234919 | 77 | 240 | 3.0 | 8.0 | 0.00 | 0.00 | 0.00 | 38 | 1010.7 |
| 20260504234848 | 77 | 243 | 3.0 | 8.0 | 0.00 | 0.00 | 0.00 | 38 | 1010.7 |
| 20260504234735 | 77 | 244 | 3.0 | 8.0 | 0.00 | 0.00 | 0.00 | 38 | 1010.7 |
| 20260504234621 | 77 | 245 | 3.0 | 8.0 | 0.00 | 0.00 | 0.00 | 38 | 1010.7 |
| 20260504234543 | 77 | 212 | 2.0 | 8.0 | 0.00 | 0.00 | 0.00 | 38 | 1010.8 |
| 20260504234429 | 77 | 233 | 2.0 | 8.0 | 0.00 | 0.00 | 0.00 | 38 | 1010.8 |
| 20260504234331 | 77 | 248 | 2.0 | 8.0 | 0.00 | 0.00 | 0.00 | 38 | 1010.8 |
| 20260504234239 | 77 | 238 | 1.0 | 8.0 | 0.00 | 0.00 | 0.00 | 39 | 1010.7 |
| 20260504234141 | 77 | 219 | 1.0 | 8.0 | 0.00 | 0.00 | 0.00 | 38 | 1010.8 |
| 20260504234021 | 77 | 219 | 2.0 | 8.0 | 0.00 | 0.00 | 0.00 | 38 | 1010.7 |
| 20260504233934 | 77 | 214 | 4.0 | 8.0 | 0.00 | 0.00 | 0.00 | 38 | 1010.7 |
| 20260504233903 | 77 | 242 | 4.0 | 8.0 | 0.00 | 0.00 | 0.00 | 38 | 1010.7 |
| 20260504233743 | 77 | 233 | 3.0 | 8.0 | 0.00 | 0.00 | 0.00 | 38 | 1010.8 |
| 20260504233625 | 77 | 200 | 3.0 | 8.0 | 0.00 | 0.00 | 0.00 | 38 | 1010.7 |
| 20260504233531 | 77 | 212 | 3.0 | 8.0 | 0.00 | 0.00 | 0.00 | 37 | 1011.0 |
| 20260504233434 | 77 | 256 | 1.0 | 8.0 | 0.00 | 0.00 | 0.00 | 37 | 1010.9 |
| 20260504233315 | 77 | 229 | 3.0 | 8.0 | 0.00 | 0.00 | 0.00 | 36 | 1010.9 |
| 20260504233228 | 78 | 233 | 5.0 | 8.0 | 0.00 | 0.00 | 0.00 | 35 | 1010.9 |
| 20260504233131 | 78 | 257 | 4.0 | 8.0 | 0.00 | 0.00 | 0.00 | 36 | 1010.9 |
| 20260504233032 | 78 | 265 | 4.0 | 7.0 | 0.00 | 0.00 | 0.00 | 36 | 1011.0 |
| 20260504232942 | 78 | 191 | 3.0 | 7.0 | 0.00 | 0.00 | 0.00 | 36 | 1011.0 |
| 20260504232824 | 78 | 132 | 1.0 | 7.0 | 0.00 | 0.00 | 0.00 | 36 | 1010.9 |
| 20260504232747 | 78 | 132 | 2.0 | 7.0 | 0.00 | 0.00 | 0.00 | 36 | 1010.9 |
| 20260504232655 | 78 | 233 | 1.0 | 7.0 | 0.00 | 0.00 | 0.00 | 37 | 1010.8 |
| 20260504232546 | 78 | 229 | 1.0 | 9.0 | 0.00 | 0.00 | 0.00 | 37 | 1010.8 |
| 20260504232427 | 78 | 229 | 1.0 | 9.0 | 0.00 | 0.00 | 0.00 | 37 | 1010.7 |
| 20260504232329 | 78 | 228 | 1.0 | 9.0 | 0.00 | 0.00 | 0.00 | 37 | 1010.8 |
| 20260504232238 | 78 | 221 | 1.0 | 9.0 | 0.00 | 0.00 | 0.00 | 37 | 1010.8 |
| 20260504232120 | 78 | 235 | 1.0 | 9.0 | 0.00 | 0.00 | 0.00 | 36 | 1010.9 |
| 20260504232022 | 78 | 238 | 0.0 | 12.0 | 0.00 | 0.00 | 0.00 | 36 | 1010.9 |
| 20260504231951 | 78 | 237 | 0.0 | 12.0 | 0.00 | 0.00 | 0.00 | 36 | 1011.0 |
| 20260504231816 | 78 | 237 | 1.0 | 12.0 | 0.00 | 0.00 | 0.00 | 36 | 1011.0 |
| 20260504231718 | 78 | 229 | 1.0 | 12.0 | 0.00 | 0.00 | 0.00 | 36 | 1010.9 |
| 20260504231620 | 78 | 191 | 0.0 | 12.0 | 0.00 | 0.00 | 0.00 | 36 | 1010.9 |
| 20260504231529 | 78 | 190 | 0.0 | 12.0 | 0.00 | 0.00 | 0.00 | 36 | 1010.8 |
| 20260504231431 | 78 | 248 | 1.0 | 12.0 | 0.00 | 0.00 | 0.00 | 37 | 1010.8 |
| 20260504231337 | 78 | 252 | 3.0 | 12.0 | 0.00 | 0.00 | 0.00 | 37 | 1010.9 |
| 20260504231222 | 78 | 230 | 4.0 | 12.0 | 0.00 | 0.00 | 0.00 | 37 | 1011.0 |
| 20260504231124 | 77 | 226 | 2.0 | 9.0 | 0.00 | 0.00 | 0.00 | 38 | 1010.8 |
| 20260504231053 | 77 | 217 | 2.0 | 9.0 | 0.00 | 0.00 | 0.00 | 38 | 1010.8 |
| 20260504230935 | 77 | 231 | 2.0 | 9.0 | 0.00 | 0.00 | 0.00 | 38 | 1010.9 |
| 20260504230816 | 77 | 236 | 3.0 | 9.0 | 0.00 | 0.00 | 0.00 | 38 | 1010.8 |
| 20260504230746 | 77 | 252 | 3.0 | 9.0 | 0.00 | 0.00 | 0.00 | 38 | 1010.9 |
| 20260504230653 | 77 | 231 | 2.0 | 7.0 | 0.00 | 0.00 | 0.00 | 38 | 1010.9 |
| 20260504230518 | 77 | 240 | 2.0 | 7.0 | 0.00 | 0.00 | 0.00 | 39 | 1010.8 |
| 20260504230420 | 77 | 242 | 2.0 | 7.0 | 0.00 | 0.00 | 0.00 | 39 | 1010.8 |
| 20260504230321 | 77 | 246 | 2.0 | 8.0 | 0.00 | 0.00 | 0.00 | 39 | 1010.8 |
| 20260504230230 | 77 | 226 | 1.0 | 8.0 | 0.00 | 0.00 | 0.00 | 39 | 1010.7 |
| 20260504230132 | 77 | 260 | 1.0 | 10.0 | 0.00 | 0.00 | 0.00 | 39 | 1010.7 |
| 20260504230033 | 77 | 259 | 2.0 | 10.0 | 0.00 | 0.00 | 0.00 | 39 | 1010.8 |
| 20260504225927 | 77 | 290 | 2.0 | 10.0 | 0.00 | 0.00 | 0.00 | 39 | 1010.9 |
| 20260504225829 | 77 | 238 | 2.0 | 10.0 | 0.00 | 0.00 | 0.00 | 39 | 1010.8 |
| 20260504225736 | 77 | 253 | 2.0 | 10.0 | 0.00 | 0.00 | 0.00 | 39 | 1011.0 |
| 20260504225617 | 77 | 220 | 3.0 | 10.0 | 0.00 | 0.00 | 0.00 | 40 | 1011.0 |
| 20260504225519 | 77 | 251 | 3.0 | 10.0 | 0.00 | 0.00 | 0.00 | 39 | 1011.0 |
| 20260504225428 | 77 | 265 | 3.0 | 10.0 | 0.00 | 0.00 | 0.00 | 40 | 1011.0 |
| 20260504225350 | 77 | 248 | 3.0 | 10.0 | 0.00 | 0.00 | 0.00 | 40 | 1011.0 |
| 20260504225215 | 78 | 301 | 1.0 | 9.0 | 0.00 | 0.00 | 0.00 | 40 | 1010.9 |
| 20260504225124 | 78 | 268 | 1.0 | 9.0 | 0.00 | 0.00 | 0.00 | 40 | 1010.9 |
| 20260504225025 | 78 | 266 | 1.0 | 9.0 | 0.00 | 0.00 | 0.00 | 40 | 1011.0 |
| 20260504224934 | 77 | 297 | 1.0 | 9.0 | 0.00 | 0.00 | 0.00 | 40 | 1010.9 |
| 20260504224835 | 77 | 309 | 1.0 | 9.0 | 0.00 | 0.00 | 0.00 | 41 | 1010.9 |
| 20260504224716 | 78 | 280 | 3.0 | 9.0 | 0.00 | 0.00 | 0.00 | 40 | 1010.9 |
| 20260504224622 | 78 | 293 | 2.0 | 7.0 | 0.00 | 0.00 | 0.00 | 40 | 1011.0 |
| 20260504224531 | 78 | 273 | 1.0 | 7.0 | 0.00 | 0.00 | 0.00 | 40 | 1011.0 |
| 20260504224453 | 78 | 238 | 2.0 | 7.0 | 0.00 | 0.00 | 0.00 | 40 | 1011.0 |
| 20260504224320 | 77 | 245 | 2.0 | 7.0 | 0.00 | 0.00 | 0.00 | 40 | 1011.1 |
| 20260504224222 | 78 | 269 | 2.0 | 7.0 | 0.00 | 0.00 | 0.00 | 40 | 1011.0 |
| 20260504224123 | 78 | 251 | 3.0 | 6.0 | 0.00 | 0.00 | 0.00 | 40 | 1011.0 |
| 20260504224052 | 78 | 213 | 3.0 | 6.0 | 0.00 | 0.00 | 0.00 | 40 | 1011.0 |
| 20260504224000 | 78 | 212 | 1.0 | 5.0 | 0.00 | 0.00 | 0.00 | 40 | 1011.0 |
| 20260504223824 | 78 | 266 | 0.0 | 6.0 | 0.00 | 0.00 | 0.00 | 40 | 1011.0 |
| 20260504223726 | 78 | 268 | 0.0 | 6.0 | 0.00 | 0.00 | 0.00 | 41 | 1010.9 |
| 20260504223636 | 78 | 268 | 0.0 | 8.0 | 0.00 | 0.00 | 0.00 | 41 | 1011.0 |
| 20260504223518 | 78 | 268 | 0.0 | 8.0 | 0.00 | 0.00 | 0.00 | 41 | 1011.0 |
| 20260504223418 | 77 | 269 | 0.0 | 8.0 | 0.00 | 0.00 | 0.00 | 41 | 1011.0 |
| 20260504223324 | 77 | 274 | 0.0 | 8.0 | 0.00 | 0.00 | 0.00 | 42 | 1011.0 |
| 20260504223231 | 77 | 274 | 1.0 | 8.0 | 0.00 | 0.00 | 0.00 | 41 | 1011.0 |
| 20260504223138 | 77 | 236 | 2.0 | 8.0 | 0.00 | 0.00 | 0.00 | 41 | 1011.0 |
| 20260504223021 | 77 | 269 | 3.0 | 11.0 | 0.00 | 0.00 | 0.00 | 41 | 1011.1 |
| 20260504222922 | 77 | 235 | 2.0 | 11.0 | 0.00 | 0.00 | 0.00 | 41 | 1011.2 |
| 20260504222852 | 77 | 261 | 1.0 | 11.0 | 0.00 | 0.00 | 0.00 | 41 | 1011.1 |
| 20260504222733 | 77 | 209 | 1.0 | 11.0 | 0.00 | 0.00 | 0.00 | 41 | 1011.1 |
| 20260504222619 | 77 | 207 | 1.0 | 11.0 | 0.00 | 0.00 | 0.00 | 41 | 1011.1 |
| 20260504222521 | 77 | 282 | 2.0 | 11.0 | 0.00 | 0.00 | 0.00 | 40 | 1011.1 |
| 20260504222431 | 77 | 276 | 2.0 | 11.0 | 0.00 | 0.00 | 0.00 | 41 | 1011.1 |
| 20260504222332 | 77 | 264 | 2.0 | 11.0 | 0.00 | 0.00 | 0.00 | 41 | 1011.1 |
| 20260504222304 | 77 | 266 | 2.0 | 11.0 | 0.00 | 0.00 | 0.00 | 41 | 1011.1 |
| 20260504222122 | 77 | 251 | 1.0 | 8.0 | 0.00 | 0.00 | 0.00 | 42 | 1011.2 |
| 20260504222024 | 77 | 249 | 2.0 | 8.0 | 0.00 | 0.00 | 0.00 | 42 | 1011.2 |
| 20260504221937 | 77 | 230 | 2.0 | 8.0 | 0.00 | 0.00 | 0.00 | 42 | 1011.2 |
| 20260504221840 | 77 | 234 | 2.0 | 8.0 | 0.00 | 0.00 | 0.00 | 41 | 1011.2 |
| 20260504221720 | 77 | 254 | 2.0 | 8.0 | 0.00 | 0.00 | 0.00 | 41 | 1011.2 |
| 20260504221630 | 77 | 252 | 1.0 | 8.0 | 0.00 | 0.00 | 0.00 | 41 | 1011.2 |
| 20260504221531 | 77 | 251 | 0.0 | 3.0 | 0.00 | 0.00 | 0.00 | 41 | 1011.3 |
| 20260504221432 | 77 | 245 | 0.0 | 7.0 | 0.00 | 0.00 | 0.00 | 41 | 1011.3 |
| 20260504221324 | 77 | 247 | 0.0 | 7.0 | 0.00 | 0.00 | 0.00 | 41 | 1011.3 |
| 20260504221246 | 77 | 229 | 0.0 | 9.0 | 0.00 | 0.00 | 0.00 | 41 | 1011.3 |
| 20260504221134 | 77 | 219 | 0.0 | 9.0 | 0.00 | 0.00 | 0.00 | 41 | 1011.3 |
| 20260504221056 | 77 | 216 | 0.0 | 9.0 | 0.00 | 0.00 | 0.00 | 41 | 1011.4 |
| 20260504220921 | 77 | 220 | 0.0 | 9.0 | 0.00 | 0.00 | 0.00 | 41 | 1011.4 |
| 20260504220824 | 77 | 240 | 0.0 | 9.0 | 0.00 | 0.00 | 0.00 | 41 | 1011.2 |
| 20260504220725 | 77 | 234 | 1.0 | 9.0 | 0.00 | 0.00 | 0.00 | 41 | 1011.2 |
| 20260504220618 | 77 | 245 | 3.0 | 9.0 | 0.00 | 0.00 | 0.00 | 41 | 1011.3 |
| 20260504220521 | 77 | 245 | 3.0 | 9.0 | 0.00 | 0.00 | 0.00 | 41 | 1011.2 |
| 20260504220423 | 77 | 212 | 3.0 | 9.0 | 0.00 | 0.00 | 0.00 | 41 | 1011.2 |
| 20260504220352 | 77 | 246 | 3.0 | 9.0 | 0.00 | 0.00 | 0.00 | 40 | 1011.2 |
| 20260504220232 | 77 | 235 | 4.0 | 9.0 | 0.00 | 0.00 | 0.00 | 40 | 1011.4 |
| 20260504220142 | 77 | 219 | 3.0 | 9.0 | 0.00 | 0.00 | 0.00 | 41 | 1011.4 |
| 20260504220034 | 77 | 227 | 4.0 | 9.0 | 0.00 | 0.00 | 0.00 | 41 | 1011.4 |
| 20260504215935 | 77 | 238 | 3.0 | 9.0 | 0.00 | 0.00 | 0.00 | 41 | 1011.4 |
| 20260504215818 | 77 | 264 | 2.0 | 8.0 | 0.00 | 0.00 | 0.00 | 41 | 1011.4 |
| 20260504215740 | 77 | 258 | 2.0 | 8.0 | 0.00 | 0.00 | 0.00 | 41 | 1011.5 |
| 20260504215628 | 77 | 221 | 2.0 | 8.0 | 0.00 | 0.00 | 0.00 | 41 | 1011.6 |
| 20260504215531 | 77 | 219 | 2.0 | 8.0 | 0.00 | 0.00 | 0.00 | 41 | 1011.6 |
| 20260504215432 | 77 | 223 | 2.0 | 10.0 | 0.00 | 0.00 | 0.00 | 41 | 1011.7 |
| 20260504215318 | 77 | 232 | 1.0 | 10.0 | 0.00 | 0.00 | 0.00 | 42 | 1011.7 |
| 20260504215227 | 76 | 258 | 0.0 | 10.0 | 0.00 | 0.00 | 0.00 | 42 | 1011.6 |
| 20260504215128 | 76 | 258 | 1.0 | 10.0 | 0.00 | 0.00 | 0.00 | 42 | 1011.6 |
| 20260504215059 | 76 | 259 | 2.0 | 10.0 | 0.00 | 0.00 | 0.00 | 42 | 1011.6 |
| 20260504214930 | 76 | 230 | 3.0 | 10.0 | 0.00 | 0.00 | 0.00 | 42 | 1011.5 |
| 20260504214837 | 76 | 258 | 4.0 | 10.0 | 0.00 | 0.00 | 0.00 | 42 | 1011.5 |
| 20260504214718 | 76 | 231 | 5.0 | 10.0 | 0.00 | 0.00 | 0.00 | 42 | 1011.6 |
| 20260504214623 | 76 | 252 | 5.0 | 10.0 | 0.00 | 0.00 | 0.00 | 42 | 1011.6 |
| 20260504214532 | 76 | 227 | 4.0 | 10.0 | 0.00 | 0.00 | 0.00 | 42 | 1011.6 |
| 20260504214434 | 76 | 259 | 4.0 | 10.0 | 0.00 | 0.00 | 0.00 | 42 | 1011.7 |
| 20260504214337 | 76 | 233 | 5.0 | 10.0 | 0.00 | 0.00 | 0.00 | 42 | 1011.7 |
| 20260504214225 | 76 | 231 | 6.0 | 10.0 | 0.00 | 0.00 | 0.00 | 42 | 1011.8 |
| 20260504214127 | 76 | 226 | 5.0 | 10.0 | 0.00 | 0.00 | 0.00 | 42 | 1011.7 |
| 20260504214028 | 76 | 260 | 4.0 | 10.0 | 0.00 | 0.00 | 0.00 | 42 | 1011.7 |
| 20260504213940 | 76 | 255 | 3.0 | 9.0 | 0.00 | 0.00 | 0.00 | 42 | 1011.8 |
| 20260504213818 | 76 | 203 | 3.0 | 9.0 | 0.00 | 0.00 | 0.00 | 42 | 1011.7 |
| 20260504213728 | 76 | 219 | 3.0 | 9.0 | 0.00 | 0.00 | 0.00 | 42 | 1011.7 |
| 20260504213631 | 76 | 227 | 3.0 | 9.0 | 0.00 | 0.00 | 0.00 | 43 | 1011.6 |
| 20260504213600 | 76 | 243 | 2.0 | 9.0 | 0.00 | 0.00 | 0.00 | 43 | 1011.7 |
| 20260504213421 | 75 | 234 | 2.0 | 9.0 | 0.00 | 0.00 | 0.00 | 42 | 1011.7 |
| 20260504213332 | 75 | 247 | 3.0 | 9.0 | 0.00 | 0.00 | 0.00 | 43 | 1011.8 |
| 20260504213252 | 75 | 238 | 4.0 | 9.0 | 0.00 | 0.00 | 0.00 | 43 | 1011.8 |
| 20260504213118 | 75 | 245 | 2.0 | 8.0 | 0.00 | 0.00 | 0.00 | 43 | 1011.9 |
| 20260504213026 | 75 | 254 | 0.0 | 8.0 | 0.00 | 0.00 | 0.00 | 43 | 1011.9 |
| 20260504212928 | 75 | 224 | 0.0 | 6.0 | 0.00 | 0.00 | 0.00 | 43 | 1012.0 |
| 20260504212829 | 75 | 224 | 0.0 | 6.0 | 0.00 | 0.00 | 0.00 | 42 | 1012.0 |
| 20260504212738 | 76 | 224 | 1.0 | 6.0 | 0.00 | 0.00 | 0.00 | 42 | 1012.0 |
| 20260504212618 | 76 | 223 | 2.0 | 6.0 | 0.00 | 0.00 | 0.00 | 43 | 1012.1 |
| 20260504212524 | 76 | 222 | 1.0 | 6.0 | 0.00 | 0.00 | 0.00 | 43 | 1012.2 |
| 20260504212434 | 76 | 210 | 1.0 | 6.0 | 0.00 | 0.00 | 0.00 | 43 | 1012.2 |
| 20260504212315 | 76 | 210 | 2.0 | 6.0 | 0.00 | 0.00 | 0.00 | 43 | 1012.3 |
| 20260504212245 | 76 | 250 | 2.0 | 6.0 | 0.00 | 0.00 | 0.00 | 42 | 1012.3 |
| 20260504212126 | 76 | 249 | 0.0 | 3.0 | 0.00 | 0.00 | 0.00 | 43 | 1012.4 |
| 20260504212028 | 76 | 249 | 0.0 | 0.0 | 0.00 | 0.00 | 0.00 | 44 | 1012.3 |
| 20260504211940 | 75 | 247 | 0.0 | 0.0 | 0.00 | 0.00 | 0.00 | 43 | 1012.3 |
| 20260504211822 | 75 | 245 | 0.0 | 0.0 | 0.00 | 0.00 | 0.00 | 43 | 1012.4 |
| 20260504211722 | 75 | 250 | 0.0 | 0.0 | 0.00 | 0.00 | 0.00 | 43 | 1012.4 |
| 20260504211631 | 75 | 242 | 0.0 | 0.0 | 0.00 | 0.00 | 0.00 | 44 | 1012.4 |
| 20260504211553 | 75 | 242 | 0.0 | 0.0 | 0.00 | 0.00 | 0.00 | 43 | 1012.3 |
| 20260504211441 | 75 | 207 | 0.0 | 0.0 | 0.00 | 0.00 | 0.00 | 44 | 1012.3 |
| 20260504211322 | 75 | 243 | 0.0 | 0.0 | 0.00 | 0.00 | 0.00 | 44 | 1012.2 |
| 20260504211227 | 75 | 243 | 0.0 | 0.0 | 0.00 | 0.00 | 0.00 | 44 | 1012.1 |
| 20260504211156 | 75 | 243 | 0.0 | 0.0 | 0.00 | 0.00 | 0.00 | 44 | 1012.2 |
| 20260504211018 | 75 | 243 | 0.0 | 2.0 | 0.00 | 0.00 | 0.00 | 44 | 1012.2 |
| 20260504210947 | 75 | 243 | 0.0 | 2.0 | 0.00 | 0.00 | 0.00 | 45 | 1012.2 |
| 20260504210828 | 75 | 243 | 0.0 | 5.0 | 0.00 | 0.00 | 0.00 | 45 | 1012.2 |
| 20260504210736 | 75 | 243 | 0.0 | 7.0 | 0.00 | 0.00 | 0.00 | 45 | 1012.2 |
| 20260504210619 | 74 | 243 | 0.0 | 9.0 | 0.00 | 0.00 | 0.00 | 45 | 1012.2 |
| 20260504210525 | 74 | 243 | 0.0 | 9.0 | 0.00 | 0.00 | 0.00 | 45 | 1012.2 |
| 20260504210427 | 74 | 243 | 0.0 | 9.0 | 0.00 | 0.00 | 0.00 | 45 | 1012.2 |
| 20260504210335 | 74 | 233 | 0.0 | 9.0 | 0.00 | 0.00 | 0.00 | 45 | 1012.3 |
| 20260504210218 | 74 | 227 | 1.0 | 9.0 | 0.00 | 0.00 | 0.00 | 45 | 1012.3 |
| 20260504210120 | 75 | 222 | 2.0 | 9.0 | 0.00 | 0.00 | 0.00 | 44 | 1012.4 |
| 20260504210042 | 75 | 222 | 3.0 | 9.0 | 0.00 | 0.00 | 0.00 | 44 | 1012.4 |
| 20260504205953 | 75 | 198 | 4.0 | 9.0 | 0.00 | 0.00 | 0.00 | 44 | 1012.3 |
| 20260504205841 | 75 | 223 | 2.0 | 9.0 | 0.00 | 0.00 | 0.00 | 44 | 1012.3 |
| 20260504205723 | 75 | 254 | 0.0 | 7.0 | 0.00 | 0.00 | 0.00 | 45 | 1012.5 |
| 20260504205626 | 75 | 254 | 1.0 | 7.0 | 0.00 | 0.00 | 0.00 | 45 | 1012.4 |
| 20260504205533 | 75 | 255 | 1.0 | 7.0 | 0.00 | 0.00 | 0.00 | 45 | 1012.4 |
| 20260504205434 | 75 | 254 | 2.0 | 7.0 | 0.00 | 0.00 | 0.00 | 45 | 1012.4 |
| 20260504205320 | 75 | 261 | 2.0 | 7.0 | 0.00 | 0.00 | 0.00 | 45 | 1012.4 |
| 20260504205223 | 75 | 226 | 1.0 | 7.0 | 0.00 | 0.00 | 0.00 | 45 | 1012.3 |
| 20260504205130 | 74 | 281 | 2.0 | 7.0 | 0.00 | 0.00 | 0.00 | 45 | 1012.4 |
| 20260504205039 | 74 | 285 | 3.0 | 11.0 | 0.00 | 0.00 | 0.00 | 45 | 1012.4 |
| 20260504204942 | 74 | 281 | 3.0 | 11.0 | 0.00 | 0.00 | 0.00 | 45 | 1012.4 |
| 20260504204849 | 74 | 255 | 3.0 | 11.0 | 0.00 | 0.00 | 0.00 | 45 | 1012.4 |
| 20260504204730 | 75 | 277 | 3.0 | 11.0 | 0.00 | 0.00 | 0.00 | 45 | 1012.4 |
| 20260504204617 | 75 | 251 | 2.0 | 11.0 | 0.00 | 0.00 | 0.00 | 45 | 1012.5 |
| 20260504204518 | 75 | 251 | 2.0 | 11.0 | 0.00 | 0.00 | 0.00 | 45 | 1012.5 |
| 20260504204428 | 75 | 251 | 4.0 | 11.0 | 0.00 | 0.00 | 0.00 | 45 | 1012.5 |
| 20260504204328 | 75 | 251 | 5.0 | 11.0 | 0.00 | 0.00 | 0.00 | 45 | 1012.6 |
| 20260504204230 | 75 | 252 | 4.0 | 11.0 | 0.00 | 0.00 | 0.00 | 45 | 1012.6 |
| 20260504204139 | 75 | 207 | 3.0 | 11.0 | 0.00 | 0.00 | 0.00 | 45 | 1012.7 |
| 20260504204025 | 75 | 182 | 4.0 | 12.0 | 0.00 | 0.00 | 0.00 | 45 | 1012.7 |
| 20260504203927 | 74 | 229 | 4.0 | 12.0 | 0.00 | 0.00 | 0.00 | 46 | 1012.6 |
| 20260504203829 | 74 | 280 | 3.0 | 12.0 | 0.00 | 0.00 | 0.00 | 45 | 1012.5 |
| 20260504203737 | 74 | 240 | 3.0 | 12.0 | 0.00 | 0.00 | 0.00 | 45 | 1012.6 |
| 20260504203617 | 74 | 204 | 4.0 | 12.0 | 0.00 | 0.00 | 0.00 | 45 | 1012.6 |
| 20260504203524 | 74 | 282 | 4.0 | 12.0 | 0.00 | 0.00 | 0.00 | 45 | 1012.6 |
| 20260504203426 | 74 | 210 | 4.0 | 12.0 | 0.00 | 0.00 | 0.00 | 45 | 1012.6 |
| 20260504203339 | 74 | 264 | 4.0 | 12.0 | 0.00 | 0.00 | 0.00 | 45 | 1012.6 |
| 20260504203219 | 75 | 237 | 5.0 | 12.0 | 0.00 | 0.00 | 0.00 | 45 | 1012.6 |
| 20260504203121 | 75 | 234 | 3.0 | 11.0 | 0.00 | 0.00 | 0.00 | 45 | 1012.7 |
| 20260504203030 | 75 | 257 | 4.0 | 11.0 | 0.00 | 0.00 | 0.00 | 45 | 1012.7 |
| 20260504202931 | 74 | 262 | 5.0 | 11.0 | 0.00 | 0.00 | 0.00 | 45 | 1012.7 |
| 20260504202839 | 75 | 231 | 5.0 | 11.0 | 0.00 | 0.00 | 0.00 | 45 | 1012.6 |
| 20260504202719 | 74 | 265 | 3.0 | 11.0 | 0.00 | 0.00 | 0.00 | 45 | 1012.7 |
| 20260504202625 | 74 | 241 | 3.0 | 11.0 | 0.00 | 0.00 | 0.00 | 45 | 1012.8 |
| 20260504202527 | 74 | 298 | 4.0 | 11.0 | 0.00 | 0.00 | 0.00 | 44 | 1012.8 |
| 20260504202435 | 75 | 245 | 5.0 | 11.0 | 0.00 | 0.00 | 0.00 | 44 | 1012.8 |
| 20260504202318 | 75 | 223 | 6.0 | 11.0 | 0.00 | 0.00 | 0.00 | 44 | 1012.7 |
| 20260504202220 | 75 | 279 | 6.0 | 11.0 | 0.00 | 0.00 | 0.00 | 44 | 1012.8 |
| 20260504202122 | 75 | 291 | 4.0 | 10.0 | 0.00 | 0.00 | 0.00 | 44 | 1012.8 |
| 20260504202035 | 75 | 283 | 4.0 | 10.0 | 0.00 | 0.00 | 0.00 | 43 | 1012.8 |
| 20260504201918 | 75 | 244 | 5.0 | 10.0 | 0.00 | 0.00 | 0.00 | 44 | 1012.7 |
| 20260504201846 | 75 | 295 | 4.0 | 10.0 | 0.00 | 0.00 | 0.00 | 43 | 1012.6 |
| 20260504201727 | 75 | 250 | 3.0 | 10.0 | 0.00 | 0.00 | 0.00 | 43 | 1012.7 |
| 20260504201656 | 75 | 248 | 3.0 | 10.0 | 0.00 | 0.00 | 0.00 | 43 | 1012.8 |
| 20260504201517 | 75 | 270 | 5.0 | 10.0 | 0.00 | 0.00 | 0.00 | 43 | 1012.8 |
| 20260504201423 | 75 | 261 | 4.0 | 10.0 | 0.00 | 0.00 | 0.00 | 43 | 1012.8 |
| 20260504201325 | 75 | 255 | 2.0 | 10.0 | 0.00 | 0.00 | 0.00 | 44 | 1012.9 |
| 20260504201234 | 75 | 276 | 4.0 | 10.0 | 0.00 | 0.00 | 0.00 | 43 | 1012.9 |
| 20260504201135 | 75 | 250 | 5.0 | 10.0 | 0.00 | 0.00 | 0.00 | 43 | 1012.9 |
| 20260504201017 | 75 | 276 | 3.0 | 12.0 | 0.00 | 0.00 | 0.00 | 44 | 1012.9 |
| 20260504200925 | 75 | 218 | 3.0 | 12.0 | 0.00 | 0.00 | 0.00 | 44 | 1012.8 |
| 20260504200826 | 74 | 240 | 3.0 | 12.0 | 0.00 | 0.00 | 0.00 | 43 | 1012.8 |
| 20260504200732 | 74 | 259 | 3.0 | 12.0 | 0.00 | 0.00 | 0.00 | 44 | 1012.9 |
| 20260504200641 | 74 | 271 | 3.0 | 12.0 | 0.00 | 0.00 | 0.00 | 43 | 1012.9 |
| 20260504200523 | 74 | 269 | 3.0 | 12.0 | 0.00 | 0.00 | 0.00 | 44 | 1012.9 |
| 20260504200425 | 74 | 249 | 3.0 | 12.0 | 0.00 | 0.00 | 0.00 | 43 | 1012.9 |
| 20260504200327 | 74 | 262 | 4.0 | 12.0 | 0.00 | 0.00 | 0.00 | 43 | 1012.8 |
| 20260504200216 | 74 | 256 | 4.0 | 10.0 | 0.00 | 0.00 | 0.00 | 44 | 1012.8 |
| 20260504200121 | 74 | 239 | 4.0 | 10.0 | 0.00 | 0.00 | 0.00 | 43 | 1012.8 |
| 20260504200043 | 74 | 262 | 4.0 | 10.0 | 0.00 | 0.00 | 0.00 | 43 | 1012.8 |
| 20260504195931 | 74 | 269 | 2.0 | 10.0 | 0.00 | 0.00 | 0.00 | 43 | 1012.7 |
| 20260504195839 | 74 | 280 | 4.0 | 10.0 | 0.00 | 0.00 | 0.00 | 43 | 1012.7 |
| 20260504195721 | 74 | 288 | 3.0 | 10.0 | 0.00 | 0.00 | 0.00 | 43 | 1012.6 |
| 20260504195631 | 74 | 270 | 2.0 | 10.0 | 0.00 | 0.00 | 0.00 | 44 | 1012.7 |
| 20260504195553 | 74 | 276 | 1.0 | 10.0 | 0.00 | 0.00 | 0.00 | 44 | 1012.7 |
| 20260504195418 | 74 | 229 | 3.0 | 10.0 | 0.00 | 0.00 | 0.00 | 44 | 1012.8 |
| 20260504195326 | 74 | 248 | 4.0 | 10.0 | 0.00 | 0.00 | 0.00 | 44 | 1012.9 |
| 20260504195228 | 74 | 224 | 4.0 | 10.0 | 0.00 | 0.00 | 0.00 | 44 | 1013.0 |
| 20260504195116 | 74 | 281 | 3.0 | 8.0 | 0.00 | 0.00 | 0.00 | 44 | 1013.0 |
| 20260504195018 | 74 | 232 | 3.0 | 8.0 | 0.00 | 0.00 | 0.00 | 44 | 1012.9 |
| 20260504194921 | 74 | 215 | 2.0 | 8.0 | 0.00 | 0.00 | 0.00 | 44 | 1012.9 |
| 20260504194829 | 74 | 250 | 3.0 | 8.0 | 0.00 | 0.00 | 0.00 | 45 | 1012.8 |
| 20260504194804 | 74 | 250 | 3.0 | 8.0 | 0.00 | 0.00 | 0.00 | 44 | 1012.8 |
| 20260504194617 | 74 | 243 | 3.0 | 9.0 | 0.00 | 0.00 | 0.00 | 44 | 1012.7 |
| 20260504194527 | 74 | 210 | 3.0 | 10.0 | 0.00 | 0.00 | 0.00 | 44 | 1012.6 |
| 20260504194430 | 74 | 259 | 2.0 | 10.0 | 0.00 | 0.00 | 0.00 | 44 | 1012.5 |
| 20260504194339 | 74 | 219 | 2.0 | 10.0 | 0.00 | 0.00 | 0.00 | 44 | 1012.5 |
| 20260504194220 | 73 | 219 | 1.0 | 10.0 | 0.00 | 0.00 | 0.00 | 44 | 1012.6 |
| 20260504194146 | 74 | 259 | 1.0 | 10.0 | 0.00 | 0.00 | 0.00 | 45 | 1012.5 |
| 20260504194054 | 73 | 232 | 1.0 | 10.0 | 0.00 | 0.00 | 0.00 | 44 | 1012.6 |
| 20260504193934 | 73 | 233 | 2.0 | 10.0 | 0.00 | 0.00 | 0.00 | 45 | 1012.6 |
| 20260504193817 | 73 | 229 | 3.0 | 10.0 | 0.00 | 0.00 | 0.00 | 45 | 1012.8 |
| 20260504193726 | 73 | 245 | 3.0 | 10.0 | 0.00 | 0.00 | 0.00 | 45 | 1012.7 |
| 20260504193648 | 73 | 296 | 2.0 | 8.0 | 0.00 | 0.00 | 0.00 | 44 | 1012.6 |
| 20260504193536 | 73 | 257 | 2.0 | 8.0 | 0.00 | 0.00 | 0.00 | 44 | 1012.6 |
| 20260504193423 | 73 | 255 | 2.0 | 8.0 | 0.00 | 0.00 | 0.00 | 44 | 1012.5 |
| 20260504193325 | 73 | 256 | 1.0 | 8.0 | 0.00 | 0.00 | 0.00 | 44 | 1012.6 |
| 20260504193227 | 73 | 250 | 2.0 | 8.0 | 0.00 | 0.00 | 0.00 | 44 | 1012.6 |
| 20260504193135 | 74 | 240 | 2.0 | 8.0 | 0.00 | 0.00 | 0.00 | 44 | 1012.7 |
| 20260504193018 | 74 | 248 | 2.0 | 8.0 | 0.00 | 0.00 | 0.00 | 44 | 1012.6 |
| 20260504192948 | 74 | 256 | 2.0 | 8.0 | 0.00 | 0.00 | 0.00 | 44 | 1012.6 |
| 20260504192830 | 74 | 254 | 2.0 | 8.0 | 0.00 | 0.00 | 0.00 | 44 | 1012.6 |
| 20260504192716 | 73 | 252 | 2.0 | 8.0 | 0.00 | 0.00 | 0.00 | 45 | 1012.6 |
| 20260504192625 | 73 | 252 | 1.0 | 7.0 | 0.00 | 0.00 | 0.00 | 44 | 1012.6 |
| 20260504192527 | 73 | 252 | 1.0 | 7.0 | 0.00 | 0.00 | 0.00 | 44 | 1012.7 |
| 20260504192456 | 73 | 252 | 1.0 | 7.0 | 0.00 | 0.00 | 0.00 | 44 | 1012.8 |
| 20260504192336 | 73 | 233 | 1.0 | 7.0 | 0.00 | 0.00 | 0.00 | 45 | 1012.9 |
| 20260504192235 | 73 | 233 | 2.0 | 7.0 | 0.00 | 0.00 | 0.00 | 45 | 1012.9 |
| 20260504192116 | 73 | 269 | 1.0 | 7.0 | 0.00 | 0.00 | 0.00 | 44 | 1012.8 |
| 20260504192050 | 73 | 234 | 2.0 | 7.0 | 0.00 | 0.00 | 0.00 | 44 | 1012.8 |
| 20260504191959 | 73 | 224 | 3.0 | 7.0 | 0.00 | 0.00 | 0.00 | 44 | 1012.8 |
| 20260504191819 | 73 | 231 | 2.0 | 8.0 | 0.00 | 0.00 | 0.00 | 44 | 1012.6 |
| 20260504191719 | 73 | 251 | 2.0 | 8.0 | 0.00 | 0.00 | 0.00 | 45 | 1012.6 |
| 20260504191628 | 73 | 238 | 2.0 | 8.0 | 0.00 | 0.00 | 0.00 | 45 | 1012.5 |
| 20260504191530 | 73 | 219 | 3.0 | 8.0 | 0.00 | 0.00 | 0.00 | 45 | 1012.5 |
| 20260504191432 | 73 | 228 | 3.0 | 8.0 | 0.00 | 0.00 | 0.00 | 44 | 1012.4 |
| 20260504191319 | 73 | 252 | 2.0 | 9.0 | 0.00 | 0.00 | 0.00 | 45 | 1012.4 |
| 20260504191228 | 73 | 226 | 2.0 | 9.0 | 0.00 | 0.00 | 0.00 | 44 | 1012.3 |
| 20260504191021 | 73 | 219 | 3.0 | 9.0 | 0.00 | 0.00 | 0.00 | 44 | 1012.4 |
| 20260504190925 | 73 | 224 | 2.0 | 9.0 | 0.00 | 0.00 | 0.00 | 44 | 1012.4 |
| 20260504190833 | 73 | 246 | 2.0 | 9.0 | 0.00 | 0.00 | 0.00 | 45 | 1012.5 |
| 20260504190729 | 73 | 257 | 2.0 | 9.0 | 0.00 | 0.00 | 0.00 | 44 | 1012.6 |
| 20260504190631 | 73 | 221 | 3.0 | 9.0 | 0.00 | 0.00 | 0.00 | 44 | 1012.8 |
| 20260504190541 | 73 | 215 | 3.0 | 9.0 | 0.00 | 0.00 | 0.00 | 44 | 1012.8 |
| 20260504190423 | 73 | 221 | 2.0 | 9.0 | 0.00 | 0.00 | 0.00 | 45 | 1012.9 |
| 20260504190325 | 73 | 232 | 3.0 | 9.0 | 0.00 | 0.00 | 0.00 | 45 | 1012.9 |
| 20260504190233 | 73 | 271 | 2.0 | 6.0 | 0.00 | 0.00 | 0.00 | 45 | 1012.9 |
| 20260504190118 | 73 | 262 | 2.0 | 8.0 | 0.00 | 0.00 | 0.00 | 45 | 1012.9 |
| 20260504190031 | 73 | 249 | 2.0 | 8.0 | 0.00 | 0.00 | 0.00 | 45 | 1013.0 |
| 20260504185930 | 73 | 244 | 1.0 | 8.0 | 0.00 | 0.00 | 0.00 | 45 | 1012.9 |
| 20260504185832 | 73 | 248 | 0.0 | 10.0 | 0.00 | 0.00 | 0.00 | 45 | 1012.9 |
| 20260504185734 | 73 | 239 | 0.0 | 10.0 | 0.00 | 0.00 | 0.00 | 45 | 1013.0 |
| 20260504185617 | 73 | 245 | 0.0 | 10.0 | 0.00 | 0.00 | 0.00 | 45 | 1013.0 |
| 20260504185530 | 73 | 280 | 1.0 | 11.0 | 0.00 | 0.00 | 0.00 | 45 | 1012.9 |
| 20260504185432 | 73 | 254 | 3.0 | 11.0 | 0.00 | 0.00 | 0.00 | 45 | 1012.9 |
| 20260504185341 | 73 | 233 | 3.0 | 11.0 | 0.00 | 0.00 | 0.00 | 45 | 1012.9 |
| 20260504185224 | 73 | 241 | 2.0 | 11.0 | 0.00 | 0.00 | 0.00 | 45 | 1012.9 |
| 20260504185125 | 73 | 266 | 3.0 | 11.0 | 0.00 | 0.00 | 0.00 | 45 | 1012.9 |
| 20260504185028 | 73 | 258 | 3.0 | 11.0 | 0.00 | 0.00 | 0.00 | 45 | 1012.9 |
| 20260504184942 | 73 | 288 | 3.0 | 11.0 | 0.00 | 0.00 | 0.00 | 46 | 1012.9 |
| 20260504184844 | 73 | 264 | 5.0 | 11.0 | 0.00 | 0.00 | 0.00 | 45 | 1012.9 |
| 20260504184752 | 73 | 264 | 5.0 | 11.0 | 0.00 | 0.00 | 0.00 | 45 | 1012.8 |
| 20260504184632 | 73 | 274 | 2.0 | 11.0 | 0.00 | 0.00 | 0.00 | 45 | 1012.7 |
| 20260504184535 | 73 | 255 | 1.0 | 11.0 | 0.00 | 0.00 | 0.00 | 46 | 1012.7 |
| 20260504184417 | 73 | 244 | 0.0 | 3.0 | 0.00 | 0.00 | 0.00 | 46 | 1012.7 |
| 20260504184324 | 73 | 244 | 0.0 | 3.0 | 0.00 | 0.00 | 0.00 | 46 | 1012.7 |
| 20260504184236 | 73 | 244 | 0.0 | 3.0 | 0.00 | 0.00 | 0.00 | 46 | 1012.7 |
| 20260504184138 | 73 | 239 | 0.0 | 3.0 | 0.00 | 0.00 | 0.00 | 46 | 1012.6 |
| 20260504184025 | 73 | 231 | 0.0 | 3.0 | 0.00 | 0.00 | 0.00 | 46 | 1012.6 |
| 20260504183927 | 73 | 222 | 0.0 | 3.0 | 0.00 | 0.00 | 0.00 | 47 | 1012.6 |
| 20260504183829 | 73 | 222 | 0.0 | 3.0 | 0.00 | 0.00 | 0.00 | 46 | 1012.6 |
| 20260504183739 | 73 | 248 | 0.0 | 3.0 | 0.00 | 0.00 | 0.00 | 47 | 1012.7 |
| 20260504183621 | 73 | 265 | 0.0 | 3.0 | 0.00 | 0.00 | 0.00 | 46 | 1012.7 |
| 20260504183524 | 73 | 240 | 0.0 | 3.0 | 0.00 | 0.00 | 0.00 | 46 | 1012.7 |
| 20260504183431 | 73 | 234 | 0.0 | 5.0 | 0.00 | 0.00 | 0.00 | 46 | 1012.8 |
| 20260504183333 | 73 | 230 | 0.0 | 8.0 | 0.00 | 0.00 | 0.00 | 47 | 1012.7 |
| 20260504183302 | 73 | 252 | 0.0 | 9.0 | 0.00 | 0.00 | 0.00 | 47 | 1012.7 |
| 20260504183122 | 73 | 252 | 0.0 | 9.0 | 0.00 | 0.00 | 0.00 | 47 | 1012.6 |
| 20260504183024 | 73 | 251 | 0.0 | 9.0 | 0.00 | 0.00 | 0.00 | 47 | 1012.6 |
| 20260504182917 | 73 | 252 | 0.0 | 9.0 | 0.00 | 0.00 | 0.00 | 47 | 1012.6 |
| 20260504182818 | 72 | 252 | 0.0 | 9.0 | 0.00 | 0.00 | 0.00 | 47 | 1012.6 |
| 20260504182721 | 72 | 255 | 1.0 | 9.0 | 0.00 | 0.00 | 0.00 | 47 | 1012.6 |
| 20260504182651 | 72 | 255 | 2.0 | 9.0 | 0.00 | 0.00 | 0.00 | 47 | 1012.5 |
| 20260504182531 | 72 | 259 | 3.0 | 9.0 | 0.00 | 0.00 | 0.00 | 47 | 1012.7 |
| 20260504182441 | 72 | 212 | 5.0 | 9.0 | 0.00 | 0.00 | 0.00 | 47 | 1012.7 |
| 20260504182321 | 72 | 269 | 5.0 | 9.0 | 0.00 | 0.00 | 0.00 | 47 | 1012.7 |
| 20260504182226 | 72 | 246 | 5.0 | 9.0 | 0.00 | 0.00 | 0.00 | 47 | 1012.7 |
| 20260504182136 | 72 | 259 | 5.0 | 9.0 | 0.00 | 0.00 | 0.00 | 47 | 1012.7 |
| 20260504182018 | 72 | 218 | 4.0 | 9.0 | 0.00 | 0.00 | 0.00 | 47 | 1012.7 |
| 20260504181920 | 72 | 264 | 2.0 | 9.0 | 0.00 | 0.00 | 0.00 | 48 | 1012.7 |
| 20260504181849 | 72 | 264 | 1.0 | 7.0 | 0.00 | 0.00 | 0.00 | 48 | 1012.7 |
| 20260504181729 | 72 | 264 | 0.0 | 7.0 | 0.00 | 0.00 | 0.00 | 47 | 1012.6 |
| 20260504181638 | 72 | 264 | 0.0 | 7.0 | 0.00 | 0.00 | 0.00 | 48 | 1012.6 |
| 20260504181523 | 72 | 264 | 0.0 | 7.0 | 0.00 | 0.00 | 0.00 | 48 | 1012.5 |
| 20260504181425 | 72 | 264 | 2.0 | 7.0 | 0.00 | 0.00 | 0.00 | 48 | 1012.6 |
| 20260504181327 | 72 | 265 | 3.0 | 9.0 | 0.00 | 0.00 | 0.00 | 48 | 1012.5 |
| 20260504181235 | 73 | 267 | 2.0 | 9.0 | 0.00 | 0.00 | 0.00 | 48 | 1012.6 |
| 20260504181118 | 73 | 278 | 2.0 | 9.0 | 0.00 | 0.00 | 0.00 | 48 | 1012.7 |
| 20260504181020 | 73 | 283 | 2.0 | 9.0 | 0.00 | 0.00 | 0.00 | 48 | 1012.7 |
| 20260504180934 | 73 | 283 | 2.0 | 9.0 | 0.00 | 0.00 | 0.00 | 48 | 1012.8 |
| 20260504180835 | 73 | 286 | 1.0 | 9.0 | 0.00 | 0.00 | 0.00 | 48 | 1012.9 |
| 20260504180717 | 73 | 287 | 1.0 | 9.0 | 0.00 | 0.00 | 0.00 | 48 | 1013.0 |
| 20260504180619 | 73 | 287 | 4.0 | 9.0 | 0.00 | 0.00 | 0.00 | 48 | 1013.0 |
| 20260504180527 | 73 | 288 | 4.0 | 9.0 | 0.00 | 0.00 | 0.00 | 48 | 1013.0 |
| 20260504180428 | 73 | 235 | 3.0 | 9.0 | 0.00 | 0.00 | 0.00 | 48 | 1013.2 |
| 20260504180342 | 73 | 208 | 2.0 | 10.0 | 0.00 | 0.00 | 0.00 | 49 | 1013.2 |
| 20260504180223 | 72 | 186 | 2.0 | 10.0 | 0.00 | 0.00 | 0.00 | 49 | 1013.3 |
| 20260504180125 | 72 | 172 | 2.0 | 10.0 | 0.00 | 0.00 | 0.00 | 49 | 1013.3 |
| 20260504180046 | 72 | 172 | 3.0 | 10.0 | 0.00 | 0.00 | 0.00 | 49 | 1013.3 |
| 20260504175917 | 72 | 247 | 3.0 | 10.0 | 0.00 | 0.00 | 0.00 | 49 | 1013.1 |
| 20260504175848 | 72 | 212 | 1.0 | 10.0 | 0.00 | 0.00 | 0.00 | 49 | 1013.1 |
| 20260504175748 | 72 | 239 | 2.0 | 10.0 | 0.00 | 0.00 | 0.00 | 49 | 1013.2 |
| 20260504175641 | 72 | 265 | 4.0 | 10.0 | 0.00 | 0.00 | 0.00 | 48 | 1013.2 |
| 20260504175523 | 72 | 224 | 6.0 | 10.0 | 0.00 | 0.00 | 0.00 | 48 | 1013.4 |
| 20260504175423 | 72 | 247 | 4.0 | 12.0 | 0.00 | 0.00 | 0.00 | 49 | 1013.4 |
| 20260504175353 | 72 | 262 | 3.0 | 12.0 | 0.00 | 0.00 | 0.00 | 49 | 1013.4 |
| 20260504175300 | 72 | 229 | 3.0 | 12.0 | 0.00 | 0.00 | 0.00 | 49 | 1013.3 |
| 20260504175121 | 72 | 269 | 4.0 | 12.0 | 0.00 | 0.00 | 0.00 | 49 | 1013.3 |
| 20260504175023 | 72 | 210 | 3.0 | 12.0 | 0.00 | 0.00 | 0.00 | 49 | 1013.2 |
| 20260504174936 | 72 | 221 | 3.0 | 12.0 | 0.00 | 0.00 | 0.00 | 49 | 1013.2 |
| 20260504174835 | 72 | 212 | 4.0 | 12.0 | 0.00 | 0.00 | 0.00 | 49 | 1013.2 |
| 20260504174716 | 72 | 264 | 4.0 | 12.0 | 0.00 | 0.00 | 0.00 | 49 | 1013.2 |
| 20260504174624 | 72 | 197 | 4.0 | 12.0 | 0.00 | 0.00 | 0.00 | 50 | 1013.2 |
| 20260504174526 | 72 | 254 | 4.0 | 12.0 | 0.00 | 0.00 | 0.00 | 50 | 1013.2 |
| 20260504174455 | 72 | 246 | 5.0 | 12.0 | 0.00 | 0.00 | 0.00 | 50 | 1013.1 |
| 20260504174356 | 72 | 252 | 6.0 | 12.0 | 0.00 | 0.00 | 0.00 | 49 | 1013.0 |
| 20260504174221 | 72 | 225 | 6.0 | 10.0 | 0.00 | 0.00 | 0.00 | 49 | 1013.0 |
| 20260504174130 | 72 | 224 | 6.0 | 13.0 | 0.00 | 0.00 | 0.00 | 49 | 1013.0 |
| 20260504174033 | 72 | 226 | 5.0 | 13.0 | 0.00 | 0.00 | 0.00 | 49 | 1012.9 |
| 20260504173935 | 72 | 227 | 5.0 | 13.0 | 0.00 | 0.00 | 0.00 | 49 | 1012.9 |
| 20260504173816 | 72 | 228 | 6.0 | 13.0 | 0.00 | 0.00 | 0.00 | 49 | 1013.1 |
| 20260504173725 | 72 | 248 | 5.0 | 13.0 | 0.00 | 0.00 | 0.00 | 50 | 1013.0 |
| 20260504173627 | 72 | 197 | 3.0 | 13.0 | 0.00 | 0.00 | 0.00 | 50 | 1012.9 |
| 20260504173520 | 72 | 207 | 3.0 | 13.0 | 0.00 | 0.00 | 0.00 | 50 | 1012.9 |
| 20260504173427 | 72 | 260 | 5.0 | 13.0 | 0.00 | 0.00 | 0.00 | 50 | 1012.8 |
| 20260504173317 | 72 | 222 | 5.0 | 13.0 | 0.00 | 0.00 | 0.00 | 50 | 1012.9 |
| 20260504173220 | 72 | 232 | 5.0 | 11.0 | 0.00 | 0.00 | 0.00 | 50 | 1012.9 |
| 20260504173128 | 72 | 276 | 5.0 | 11.0 | 0.00 | 0.00 | 0.00 | 51 | 1012.9 |
| 20260504173031 | 72 | 258 | 3.0 | 11.0 | 0.00 | 0.00 | 0.00 | 51 | 1012.8 |
| 20260504172916 | 72 | 269 | 3.0 | 9.0 | 0.00 | 0.00 | 0.00 | 51 | 1012.7 |
| 20260504172818 | 71 | 245 | 3.0 | 9.0 | 0.00 | 0.00 | 0.00 | 51 | 1012.7 |
| 20260504172727 | 71 | 240 | 2.0 | 9.0 | 0.00 | 0.00 | 0.00 | 51 | 1012.6 |
| 20260504172629 | 71 | 245 | 1.0 | 6.0 | 0.00 | 0.00 | 0.00 | 51 | 1012.5 |
| 20260504172529 | 71 | 259 | 0.0 | 5.0 | 0.00 | 0.00 | 0.00 | 51 | 1012.5 |
| 20260504172439 | 71 | 259 | 0.0 | 5.0 | 0.00 | 0.00 | 0.00 | 51 | 1012.3 |
| 20260504172324 | 71 | 210 | 0.0 | 5.0 | 0.00 | 0.00 | 0.00 | 51 | 1012.2 |
| 20260504172233 | 71 | 267 | 0.0 | 5.0 | 0.00 | 0.00 | 0.00 | 51 | 1012.1 |
| 20260504172131 | 71 | 269 | 1.0 | 5.0 | 0.00 | 0.00 | 0.00 | 51 | 1012.0 |
| 20260504172040 | 71 | 269 | 1.0 | 5.0 | 0.00 | 0.00 | 0.00 | 51 | 1012.2 |
| 20260504171940 | 71 | 222 | 0.0 | 1.0 | 0.00 | 0.00 | 0.00 | 51 | 1012.0 |
| 20260504171848 | 71 | 222 | 0.0 | 1.0 | 0.00 | 0.00 | 0.00 | 51 | 1012.1 |
| 20260504171749 | 71 | 222 | 0.0 | 1.0 | 0.00 | 0.00 | 0.00 | 51 | 1012.0 |
| 20260504171637 | 71 | 222 | 0.0 | 1.0 | 0.00 | 0.00 | 0.00 | 51 | 1012.0 |
| 20260504171518 | 71 | 222 | 0.0 | 1.0 | 0.00 | 0.00 | 0.00 | 51 | 1012.1 |
| 20260504171430 | 71 | 222 | 0.0 | 1.0 | 0.00 | 0.00 | 0.00 | 51 | 1012.2 |
| 20260504171331 | 71 | 222 | 0.0 | 1.0 | 0.00 | 0.00 | 0.00 | 52 | 1012.2 |
| 20260504171231 | 71 | 222 | 0.0 | 1.0 | 0.00 | 0.00 | 0.00 | 52 | 1012.1 |